Wetterdaten: Donnerstag, 31.12.2015
Datum Zeit Temp. Aussen Temp. o. S. +5cm Feuchte Auss BlattFeu 1 Luftdruck Regen Sonnenschein Regendauer Solar Windben Empfang
31.12.2015 00:00 5,4 C 5,6 C 4,4 C 87 % 0 lf 1015,7 hPa 0,0 l/m 0 min 0 min 0 W/m 43,9 km/h (6 Bft) 95,74 %
31.12.2015 00:02 5,4 C 5,6 C 4,4 C 87 % 0 lf 1015,6 hPa 0,0 l/m 0 min 0 min 0 W/m 35,6 km/h (5 Bft) 94,59 %
31.12.2015 00:05 5,4 C 5,6 C 4,4 C 87 % 0 lf 1015,4 hPa 0,0 l/m 0 min 0 min 0 W/m 31,4 km/h (5 Bft) 94,44 %
31.12.2015 00:06 5,4 C 5,6 C 3,9 C 87 % 0 lf 1015,4 hPa 0,0 l/m 0 min 0 min 0 W/m 33,5 km/h (5 Bft) 86,96 %
31.12.2015 00:08 5,4 C 5,6 C 3,9 C 87 % 0 lf 1015,4 hPa 0,0 l/m 0 min 0 min 0 W/m 33,5 km/h (5 Bft) 95,74 %
31.12.2015 00:10 5,4 C 5,6 C 3,9 C 87 % 0 lf 1015,4 hPa 0,0 l/m 0 min 0 min 0 W/m 31,4 km/h (5 Bft) 91,49 %
31.12.2015 00:12 5,3 C 5,6 C 3,9 C 87 % 0 lf 1015,4 hPa 0,0 l/m 0 min 0 min 0 W/m 25,1 km/h (4 Bft) 93,62 %
31.12.2015 00:14 5,3 C 5,6 C 3,9 C 87 % 0 lf 1015,3 hPa 0,0 l/m 0 min 0 min 0 W/m 33,5 km/h (5 Bft) 95,74 %
31.12.2015 00:16 5,3 C 5,6 C 4,4 C 87 % 0 lf 1015,3 hPa 0,0 l/m 0 min 0 min 0 W/m 56,5 km/h (7 Bft) 93,62 %
31.12.2015 00:18 5,3 C 5,6 C 4,4 C 87 % 0 lf 1015,3 hPa 0,0 l/m 0 min 0 min 0 W/m 43,9 km/h (6 Bft) 91,30 %
31.12.2015 00:20 5,3 C 5,6 C 4,4 C 87 % 0 lf 1015,3 hPa 0,0 l/m 0 min 0 min 0 W/m 31,4 km/h (5 Bft) 93,62 %
31.12.2015 00:22 5,3 C 5,6 C 4,4 C 87 % 0 lf 1015,4 hPa 0,0 l/m 0 min 0 min 0 W/m 29,3 km/h (5 Bft) 91,49 %
31.12.2015 00:24 5,3 C 5,6 C 4,4 C 87 % 0 lf 1015,3 hPa 0,0 l/m 0 min 0 min 0 W/m 33,5 km/h (5 Bft) 93,62 %
31.12.2015 00:26 5,3 C 5,6 C 4,4 C 87 % 0 lf 1015,4 hPa 0,0 l/m 0 min 0 min 0 W/m 37,7 km/h (5 Bft) 95,74 %
31.12.2015 00:28 5,3 C 5,6 C 4,4 C 87 % 0 lf 1015,4 hPa 0,0 l/m 0 min 0 min 0 W/m 27,2 km/h (4 Bft) 95,65 %
31.12.2015 00:30 5,3 C 5,6 C 3,9 C 87 % 0 lf 1015,3 hPa 0,0 l/m 0 min 0 min 0 W/m 29,3 km/h (5 Bft) 95,74 %
31.12.2015 00:32 5,3 C 5,6 C 3,9 C 87 % 0 lf 1015,4 hPa 0,0 l/m 0 min 0 min 0 W/m 39,7 km/h (6 Bft) 93,62 %
31.12.2015 00:34 5,3 C 5,6 C 3,9 C 87 % 0 lf 1015,3 hPa 0,0 l/m 0 min 0 min 0 W/m 35,6 km/h (5 Bft) 91,49 %
31.12.2015 00:36 5,3 C 5,6 C 3,9 C 87 % 0 lf 1015,2 hPa 0,0 l/m 0 min 0 min 0 W/m 37,7 km/h (5 Bft) 95,74 %
31.12.2015 00:38 5,3 C 5,6 C 4,4 C 86 % 0 lf 1015,2 hPa 0,0 l/m 0 min 0 min 0 W/m 39,7 km/h (6 Bft) 97,87 %
31.12.2015 00:40 5,3 C 5,6 C 3,9 C 86 % 0 lf 1015,1 hPa 0,0 l/m 0 min 0 min 0 W/m 41,8 km/h (6 Bft) 97,83 %
31.12.2015 00:42 5,3 C 5,6 C 3,9 C 86 % 0 lf 1015,1 hPa 0,0 l/m 0 min 0 min 0 W/m 31,4 km/h (5 Bft) 95,74 %
31.12.2015 00:44 5,3 C 5,6 C 3,9 C 86 % 0 lf 1015,1 hPa 0,0 l/m 0 min 0 min 0 W/m 43,9 km/h (6 Bft) 95,74 %
31.12.2015 00:46 5,3 C 5,6 C 3,9 C 86 % 0 lf 1015,1 hPa 0,0 l/m 0 min 0 min 0 W/m 29,3 km/h (5 Bft) 97,87 %
31.12.2015 00:48 5,3 C 5,6 C 3,9 C 86 % 0 lf 1015,1 hPa 0,0 l/m 0 min 0 min 0 W/m 41,8 km/h (6 Bft) 97,87 %
31.12.2015 00:50 5,3 C 5,6 C 3,9 C 86 % 0 lf 1015,0 hPa 0,0 l/m 0 min 0 min 0 W/m 29,3 km/h (5 Bft) 95,74 %
31.12.2015 00:52 5,2 C 5,6 C 3,9 C 86 % 0 lf 1015,0 hPa 0,0 l/m 0 min 0 min 0 W/m 52,3 km/h (7 Bft) 93,48 %
31.12.2015 00:54 5,3 C 5,6 C 3,9 C 86 % 0 lf 1015,0 hPa 0,0 l/m 0 min 0 min 0 W/m 31,4 km/h (5 Bft) 97,87 %
31.12.2015 00:56 5,2 C 5,6 C 3,9 C 86 % 0 lf 1015,0 hPa 0,0 l/m 0 min 0 min 0 W/m 39,7 km/h (6 Bft) 97,87 %
31.12.2015 00:58 5,2 C 5,6 C 3,9 C 86 % 0 lf 1014,9 hPa 0,0 l/m 0 min 0 min 0 W/m 33,5 km/h (5 Bft) 97,87 %
31.12.2015 01:00 5,2 C 5,6 C 3,9 C 86 % 0 lf 1014,8 hPa 0,0 l/m 0 min 0 min 0 W/m 27,2 km/h (4 Bft) 100,00 %
31.12.2015 01:02 5,2 C 5,6 C 3,9 C 86 % 0 lf 1014,7 hPa 0,0 l/m 0 min 0 min 0 W/m 33,5 km/h (5 Bft) 97,87 %
31.12.2015 01:04 5,2 C 5,6 C 3,9 C 86 % 0 lf 1014,6 hPa 0,0 l/m 0 min 0 min 0 W/m 35,6 km/h (5 Bft) 93,48 %
31.12.2015 01:06 5,2 C 5,6 C 4,4 C 86 % 0 lf 1014,6 hPa 0,0 l/m 0 min 0 min 0 W/m 27,2 km/h (4 Bft) 100,00 %
31.12.2015 01:08 5,2 C 5,6 C 3,9 C 86 % 0 lf 1014,5 hPa 0,0 l/m 0 min 0 min 0 W/m 27,2 km/h (4 Bft) 95,74 %
31.12.2015 01:10 5,2 C 5,6 C 4,4 C 86 % 0 lf 1014,6 hPa 0,0 l/m 0 min 0 min 0 W/m 35,6 km/h (5 Bft) 95,74 %
31.12.2015 01:12 5,3 C 5,6 C 4,4 C 86 % 0 lf 1014,6 hPa 0,0 l/m 0 min 0 min 0 W/m 37,7 km/h (5 Bft) 97,87 %
31.12.2015 01:14 5,3 C 5,6 C 4,4 C 86 % 0 lf 1014,6 hPa 0,0 l/m 0 min 0 min 0 W/m 27,2 km/h (4 Bft) 93,62 %
31.12.2015 01:16 5,3 C 5,6 C 4,4 C 86 % 0 lf 1014,7 hPa 0,0 l/m 0 min 0 min 0 W/m 29,3 km/h (5 Bft) 95,65 %
31.12.2015 01:18 5,3 C 5,6 C 4,4 C 86 % 0 lf 1014,6 hPa 0,0 l/m 0 min 0 min 0 W/m 37,7 km/h (5 Bft) 95,74 %
31.12.2015 01:20 5,3 C 5,6 C 4,4 C 86 % 0 lf 1014,6 hPa 0,0 l/m 0 min 0 min 0 W/m 43,9 km/h (6 Bft) 95,74 %
31.12.2015 01:22 5,3 C 5,6 C 4,4 C 86 % 0 lf 1014,5 hPa 0,0 l/m 0 min 0 min 0 W/m 35,6 km/h (5 Bft) 97,87 %
31.12.2015 01:24 5,3 C 5,6 C 4,4 C 86 % 0 lf 1014,5 hPa 0,0 l/m 0 min 0 min 0 W/m 39,7 km/h (6 Bft) 97,87 %
31.12.2015 01:26 5,3 C 5,6 C 4,4 C 86 % 0 lf 1014,5 hPa 0,0 l/m 0 min 0 min 0 W/m 27,2 km/h (4 Bft) 95,74 %
31.12.2015 01:28 5,3 C 5,6 C 4,4 C 86 % 0 lf 1014,5 hPa 0,0 l/m 0 min 0 min 0 W/m 33,5 km/h (5 Bft) 97,83 %
31.12.2015 01:30 5,3 C 5,6 C 4,4 C 86 % 0 lf 1014,5 hPa 0,0 l/m 0 min 0 min 0 W/m 31,4 km/h (5 Bft) 95,74 %
31.12.2015 01:32 5,3 C 5,6 C 4,4 C 86 % 0 lf 1014,5 hPa 0,0 l/m 0 min 0 min 0 W/m 39,7 km/h (6 Bft) 97,87 %
31.12.2015 01:34 5,3 C 5,6 C 3,9 C 86 % 0 lf 1014,5 hPa 0,0 l/m 0 min 0 min 0 W/m 43,9 km/h (6 Bft) 93,62 %
31.12.2015 01:36 5,3 C 5,6 C 3,9 C 86 % 0 lf 1014,5 hPa 0,0 l/m 0 min 0 min 0 W/m 41,8 km/h (6 Bft) 95,74 %
31.12.2015 01:38 5,3 C 5,6 C 3,9 C 86 % 0 lf 1014,5 hPa 0,0 l/m 0 min 0 min 0 W/m 41,8 km/h (6 Bft) 95,65 %
31.12.2015 01:40 5,3 C 5,6 C 3,9 C 86 % 0 lf 1014,5 hPa 0,0 l/m 0 min 0 min 0 W/m 27,2 km/h (4 Bft) 100,00 %
31.12.2015 01:42 5,3 C 5,6 C 3,9 C 86 % 0 lf 1014,5 hPa 0,0 l/m 0 min 0 min 0 W/m 33,5 km/h (5 Bft) 95,74 %
31.12.2015 01:44 5,3 C 5,6 C 3,9 C 86 % 0 lf 1014,6 hPa 0,0 l/m 0 min 0 min 0 W/m 29,3 km/h (5 Bft) 100,00 %
31.12.2015 01:46 5,3 C 5,6 C 3,9 C 86 % 0 lf 1014,6 hPa 0,0 l/m 0 min 0 min 0 W/m 27,2 km/h (4 Bft) 97,87 %
31.12.2015 01:48 5,3 C 5,6 C 3,9 C 86 % 0 lf 1014,5 hPa 0,0 l/m 0 min 0 min 0 W/m 35,6 km/h (5 Bft) 100,00 %
31.12.2015 01:50 5,3 C 5,6 C 4,4 C 86 % 0 lf 1014,5 hPa 0,0 l/m 0 min 0 min 0 W/m 35,6 km/h (5 Bft) 97,83 %
31.12.2015 01:52 5,3 C 5,6 C 4,4 C 86 % 0 lf 1014,5 hPa 0,0 l/m 0 min 0 min 0 W/m 31,4 km/h (5 Bft) 97,87 %
31.12.2015 01:54 5,3 C 5,6 C 4,4 C 87 % 0 lf 1014,4 hPa 0,0 l/m 0 min 0 min 0 W/m 39,7 km/h (6 Bft) 97,87 %
31.12.2015 01:56 5,3 C 5,6 C 4,4 C 86 % 0 lf 1014,4 hPa 0,0 l/m 0 min 0 min 0 W/m 39,7 km/h (6 Bft) 95,74 %
31.12.2015 01:58 5,3 C 5,6 C 4,4 C 87 % 0 lf 1014,5 hPa 0,0 l/m 0 min 0 min 0 W/m 43,9 km/h (6 Bft) 97,87 %
31.12.2015 02:00 5,3 C 5,6 C 4,4 C 87 % 0 lf 1014,4 hPa 0,0 l/m 0 min 0 min 0 W/m 31,4 km/h (5 Bft) 97,87 %
31.12.2015 02:02 5,4 C 5,6 C 4,4 C 87 % 0 lf 1014,4 hPa 0,0 l/m 0 min 0 min 0 W/m 35,6 km/h (5 Bft) 95,65 %
31.12.2015 02:04 5,4 C 5,6 C 4,4 C 87 % 0 lf 1014,3 hPa 0,0 l/m 0 min 0 min 0 W/m 43,9 km/h (6 Bft) 97,87 %
31.12.2015 02:06 5,4 C 5,6 C 4,4 C 87 % 0 lf 1014,4 hPa 0,0 l/m 0 min 0 min 0 W/m 29,3 km/h (5 Bft) 95,74 %
31.12.2015 02:08 5,4 C 5,6 C 4,4 C 87 % 0 lf 1014,4 hPa 0,0 l/m 0 min 0 min 0 W/m 41,8 km/h (6 Bft) 97,87 %
31.12.2015 02:10 5,4 C 5,6 C 4,4 C 87 % 0 lf 1014,3 hPa 0,0 l/m 0 min 0 min 0 W/m 39,7 km/h (6 Bft) 95,74 %
31.12.2015 02:12 5,4 C 5,6 C 4,4 C 87 % 0 lf 1014,2 hPa 0,0 l/m 0 min 0 min 0 W/m 43,9 km/h (6 Bft) 97,87 %
31.12.2015 02:14 5,4 C 5,6 C 4,4 C 86 % 0 lf 1014,4 hPa 0,0 l/m 0 min 0 min 0 W/m 43,9 km/h (6 Bft) 93,48 %
31.12.2015 02:16 5,4 C 5,6 C 4,4 C 86 % 0 lf 1014,3 hPa 0,0 l/m 0 min 0 min 0 W/m 33,5 km/h (5 Bft) 97,87 %
31.12.2015 02:18 5,4 C 5,6 C 4,4 C 86 % 0 lf 1014,3 hPa 0,0 l/m 0 min 0 min 0 W/m 41,8 km/h (6 Bft) 95,74 %
31.12.2015 02:20 5,5 C 5,6 C 4,4 C 87 % 0 lf 1014,2 hPa 0,0 l/m 0 min 0 min 0 W/m 33,5 km/h (5 Bft) 95,74 %
31.12.2015 02:22 5,5 C 5,6 C 4,4 C 87 % 0 lf 1014,3 hPa 0,0 l/m 0 min 0 min 0 W/m 37,7 km/h (5 Bft) 100,00 %
31.12.2015 02:24 5,4 C 5,6 C 4,4 C 87 % 0 lf 1014,3 hPa 0,0 l/m 0 min 0 min 0 W/m 29,3 km/h (5 Bft) 97,87 %
31.12.2015 02:26 5,4 C 5,6 C 4,4 C 87 % 0 lf 1014,2 hPa 0,0 l/m 0 min 0 min 0 W/m 35,6 km/h (5 Bft) 97,83 %
31.12.2015 02:28 5,4 C 5,6 C 4,4 C 87 % 0 lf 1014,2 hPa 0,0 l/m 0 min 0 min 0 W/m 35,6 km/h (5 Bft) 97,87 %
31.12.2015 02:30 5,4 C 5,6 C 4,4 C 87 % 0 lf 1014,3 hPa 0,0 l/m 0 min 0 min 0 W/m 35,6 km/h (5 Bft) 97,87 %
31.12.2015 02:32 5,4 C 5,6 C 4,4 C 87 % 0 lf 1014,2 hPa 0,0 l/m 0 min 0 min 0 W/m 29,3 km/h (5 Bft) 93,62 %
31.12.2015 02:34 5,5 C 5,6 C 4,4 C 87 % 0 lf 1014,2 hPa 0,0 l/m 0 min 0 min 0 W/m 37,7 km/h (5 Bft) 97,87 %
31.12.2015 02:36 5,4 C 5,6 C 4,4 C 87 % 0 lf 1014,2 hPa 0,0 l/m 0 min 0 min 0 W/m 35,6 km/h (5 Bft) 97,83 %
31.12.2015 02:38 5,4 C 5,6 C 4,4 C 87 % 0 lf 1014,1 hPa 0,0 l/m 0 min 0 min 0 W/m 33,5 km/h (5 Bft) 100,00 %
31.12.2015 02:40 5,5 C 5,6 C 4,4 C 87 % 0 lf 1014,2 hPa 0,0 l/m 0 min 0 min 0 W/m 29,3 km/h (5 Bft) 100,00 %
31.12.2015 02:42 5,5 C 5,6 C 4,4 C 87 % 0 lf 1014,2 hPa 0,0 l/m 0 min 0 min 0 W/m 25,1 km/h (4 Bft) 100,00 %
31.12.2015 02:44 5,4 C 5,6 C 4,4 C 87 % 0 lf 1014,2 hPa 0,0 l/m 0 min 0 min 0 W/m 37,7 km/h (5 Bft) 97,87 %
31.12.2015 02:46 5,5 C 5,6 C 4,4 C 86 % 0 lf 1014,1 hPa 0,0 l/m 0 min 0 min 0 W/m 43,9 km/h (6 Bft) 97,87 %
31.12.2015 02:48 5,4 C 5,6 C 4,4 C 86 % 0 lf 1014,1 hPa 0,0 l/m 0 min 0 min 0 W/m 43,9 km/h (6 Bft) 95,65 %
31.12.2015 02:50 5,4 C 5,6 C 4,4 C 86 % 0 lf 1014,2 hPa 0,0 l/m 0 min 0 min 0 W/m 35,6 km/h (5 Bft) 95,74 %
31.12.2015 02:52 5,4 C 5,6 C 4,4 C 86 % 0 lf 1014,1 hPa 0,0 l/m 0 min 0 min 0 W/m 27,2 km/h (4 Bft) 93,62 %
31.12.2015 02:54 5,4 C 5,6 C 4,4 C 87 % 0 lf 1014,1 hPa 0,0 l/m 0 min 0 min 0 W/m 43,9 km/h (6 Bft) 95,74 %
31.12.2015 02:56 5,5 C 5,6 C 4,4 C 87 % 0 lf 1014,1 hPa 0,0 l/m 0 min 0 min 0 W/m 39,7 km/h (6 Bft) 95,74 %
31.12.2015 02:58 5,5 C 5,6 C 4,4 C 87 % 0 lf 1014,0 hPa 0,0 l/m 0 min 0 min 0 W/m 39,7 km/h (6 Bft) 97,87 %
31.12.2015 03:00 5,5 C 5,6 C 4,4 C 86 % 0 lf 1014,0 hPa 0,0 l/m 0 min 0 min 0 W/m 31,4 km/h (5 Bft) 91,30 %
31.12.2015 03:02 5,5 C 5,6 C 4,4 C 87 % 0 lf 1014,0 hPa 0,0 l/m 0 min 0 min 0 W/m 37,7 km/h (5 Bft) 97,87 %
31.12.2015 03:04 5,5 C 5,6 C 4,4 C 87 % 0 lf 1014,0 hPa 0,0 l/m 0 min 0 min 0 W/m 41,8 km/h (6 Bft) 95,74 %
31.12.2015 03:06 5,5 C 6,1 C 4,4 C 87 % 0 lf 1014,0 hPa 0,0 l/m 0 min 0 min 0 W/m 35,6 km/h (5 Bft) 93,62 %
31.12.2015 03:08 5,5 C 5,6 C 4,4 C 86 % 0 lf 1014,0 hPa 0,0 l/m 0 min 0 min 0 W/m 27,2 km/h (4 Bft) 93,62 %
31.12.2015 03:10 5,5 C 5,6 C 4,4 C 86 % 0 lf 1013,9 hPa 0,0 l/m 0 min 0 min 0 W/m 35,6 km/h (5 Bft) 93,62 %
31.12.2015 03:12 5,6 C 6,1 C 4,4 C 86 % 0 lf 1013,8 hPa 0,0 l/m 0 min 0 min 0 W/m 39,7 km/h (6 Bft) 93,48 %
31.12.2015 03:14 5,6 C 6,1 C 4,4 C 86 % 0 lf 1013,9 hPa 0,0 l/m 0 min 0 min 0 W/m 31,4 km/h (5 Bft) 95,74 %
31.12.2015 03:16 5,6 C 6,1 C 4,4 C 86 % 0 lf 1013,9 hPa 0,0 l/m 0 min 2 min 0 W/m 35,6 km/h (5 Bft) 95,74 %
31.12.2015 03:18 5,6 C 6,1 C 4,4 C 86 % 0 lf 1013,9 hPa 0,0 l/m 0 min 0 min 0 W/m 33,5 km/h (5 Bft) 95,74 %
31.12.2015 03:20 5,6 C 6,1 C 4,4 C 86 % 0 lf 1013,7 hPa 0,0 l/m 0 min 0 min 0 W/m 35,6 km/h (5 Bft) 93,62 %
31.12.2015 03:22 5,6 C 6,1 C 4,4 C 86 % 0 lf 1013,7 hPa 0,0 l/m 0 min 0 min 0 W/m 46,0 km/h (6 Bft) 95,74 %
31.12.2015 03:24 5,6 C 6,1 C 4,4 C 86 % 0 lf 1013,9 hPa 0,0 l/m 0 min 0 min 0 W/m 35,6 km/h (5 Bft) 91,30 %
31.12.2015 03:26 5,6 C 6,1 C 4,4 C 86 % 0 lf 1013,9 hPa 0,0 l/m 0 min 0 min 0 W/m 33,5 km/h (5 Bft) 95,74 %
31.12.2015 03:28 5,7 C 6,1 C 4,4 C 86 % 0 lf 1013,9 hPa 0,0 l/m 0 min 0 min 0 W/m 37,7 km/h (5 Bft) 91,49 %
31.12.2015 03:30 5,7 C 6,1 C 4,4 C 86 % 0 lf 1013,9 hPa 0,0 l/m 0 min 0 min 0 W/m 33,5 km/h (5 Bft) 95,74 %
31.12.2015 03:32 5,7 C 6,1 C 4,4 C 86 % 0 lf 1013,8 hPa 0,0 l/m 0 min 0 min 0 W/m 31,4 km/h (5 Bft) 93,62 %
31.12.2015 03:34 5,7 C 6,1 C 4,4 C 86 % 0 lf 1013,9 hPa 0,0 l/m 0 min 0 min 0 W/m 41,8 km/h (6 Bft) 97,87 %
31.12.2015 03:36 5,7 C 6,1 C 4,4 C 86 % 0 lf 1013,9 hPa 0,0 l/m 0 min 0 min 0 W/m 43,9 km/h (6 Bft) 100,00 %
31.12.2015 03:38 5,7 C 6,1 C 4,4 C 86 % 0 lf 1013,9 hPa 0,0 l/m 0 min 0 min 0 W/m 33,5 km/h (5 Bft) 100,00 %
31.12.2015 03:40 5,7 C 6,1 C 4,4 C 86 % 0 lf 1013,9 hPa 0,0 l/m 0 min 0 min 0 W/m 29,3 km/h (5 Bft) 100,00 %
31.12.2015 03:42 5,8 C 6,1 C 4,4 C 86 % 0 lf 1013,9 hPa 0,0 l/m 0 min 0 min 0 W/m 20,9 km/h (4 Bft) 97,87 %
31.12.2015 03:44 5,8 C 6,1 C 4,4 C 86 % 0 lf 1013,9 hPa 0,0 l/m 0 min 0 min 0 W/m 33,5 km/h (5 Bft) 93,62 %
31.12.2015 03:46 5,8 C 6,1 C 4,4 C 86 % 0 lf 1013,9 hPa 0,0 l/m 0 min 0 min 0 W/m 35,6 km/h (5 Bft) 100,00 %
31.12.2015 03:48 5,8 C 6,1 C 4,4 C 86 % 0 lf 1013,9 hPa 0,0 l/m 0 min 0 min 0 W/m 29,3 km/h (5 Bft) 95,65 %
31.12.2015 03:50 5,8 C 6,1 C 4,4 C 86 % 0 lf 1013,9 hPa 0,0 l/m 0 min 0 min 0 W/m 29,3 km/h (5 Bft) 97,87 %
31.12.2015 03:52 5,8 C 6,1 C 4,4 C 86 % 0 lf 1013,8 hPa 0,0 l/m 0 min 0 min 0 W/m 29,3 km/h (5 Bft) 95,74 %
31.12.2015 03:54 5,8 C 6,1 C 4,4 C 86 % 0 lf 1013,8 hPa 0,0 l/m 0 min 0 min 0 W/m 31,4 km/h (5 Bft) 95,74 %
31.12.2015 03:56 5,8 C 6,1 C 4,4 C 86 % 0 lf 1013,8 hPa 0,0 l/m 0 min 0 min 0 W/m 37,7 km/h (5 Bft) 97,87 %
31.12.2015 03:58 5,8 C 6,1 C 4,4 C 86 % 0 lf 1013,8 hPa 0,0 l/m 0 min 0 min 0 W/m 31,4 km/h (5 Bft) 93,48 %
31.12.2015 04:00 5,8 C 6,1 C 4,4 C 86 % 0 lf 1013,7 hPa 0,0 l/m 0 min 0 min 0 W/m 31,4 km/h (5 Bft) 93,62 %
31.12.2015 04:02 5,8 C 6,1 C 4,4 C 86 % 0 lf 1013,8 hPa 0,0 l/m 0 min 0 min 0 W/m 37,7 km/h (5 Bft) 100,00 %
31.12.2015 04:04 5,8 C 6,1 C 4,4 C 86 % 0 lf 1013,7 hPa 0,0 l/m 0 min 0 min 0 W/m 33,5 km/h (5 Bft) 100,00 %
31.12.2015 04:09 5,8 C 6,1 C 4,4 C 86 % 0 lf 1013,7 hPa 0,0 l/m 0 min 0 min 0 W/m 43,9 km/h (6 Bft) 81,82 %
31.12.2015 04:10 5,8 C 6,1 C 4,4 C 86 % 0 lf 1013,7 hPa 0,0 l/m 0 min 0 min 0 W/m 37,7 km/h (5 Bft) 100,00 %
31.12.2015 04:12 5,8 C 6,1 C 4,4 C 86 % 0 lf 1013,7 hPa 0,0 l/m 0 min 0 min 0 W/m 27,2 km/h (4 Bft) 97,87 %
31.12.2015 04:14 5,8 C 6,1 C 4,4 C 86 % 0 lf 1013,8 hPa 0,0 l/m 0 min 0 min 0 W/m 37,7 km/h (5 Bft) 95,74 %
31.12.2015 04:16 5,8 C 6,1 C 4,4 C 86 % 0 lf 1013,8 hPa 0,0 l/m 0 min 0 min 0 W/m 31,4 km/h (5 Bft) 97,87 %
31.12.2015 04:18 5,8 C 6,1 C 4,4 C 85 % 0 lf 1013,9 hPa 0,0 l/m 0 min 0 min 0 W/m 31,4 km/h (5 Bft) 97,87 %
31.12.2015 04:20 5,8 C 6,1 C 4,4 C 86 % 0 lf 1013,9 hPa 0,0 l/m 0 min 0 min 0 W/m 23,0 km/h (4 Bft) 91,49 %
31.12.2015 04:22 5,8 C 6,1 C 4,4 C 86 % 0 lf 1013,9 hPa 0,0 l/m 0 min 0 min 0 W/m 25,1 km/h (4 Bft) 95,65 %
31.12.2015 04:24 5,8 C 6,1 C 4,4 C 86 % 0 lf 1013,9 hPa 0,0 l/m 0 min 0 min 0 W/m 23,0 km/h (4 Bft) 97,87 %
31.12.2015 04:26 5,8 C 6,1 C 4,4 C 86 % 0 lf 1013,9 hPa 0,0 l/m 0 min 0 min 0 W/m 27,2 km/h (4 Bft) 95,74 %
31.12.2015 04:28 5,8 C 6,1 C 4,4 C 86 % 0 lf 1013,9 hPa 0,0 l/m 0 min 0 min 0 W/m 25,1 km/h (4 Bft) 95,74 %
31.12.2015 04:30 5,8 C 6,1 C 4,4 C 86 % 0 lf 1014,0 hPa 0,0 l/m 0 min 0 min 0 W/m 31,4 km/h (5 Bft) 95,74 %
31.12.2015 04:32 5,8 C 6,1 C 4,4 C 86 % 0 lf 1013,9 hPa 0,0 l/m 0 min 0 min 0 W/m 25,1 km/h (4 Bft) 97,87 %
31.12.2015 04:34 5,8 C 6,1 C 4,4 C 86 % 0 lf 1013,9 hPa 0,0 l/m 0 min 0 min 0 W/m 29,3 km/h (5 Bft) 97,83 %
31.12.2015 04:36 5,8 C 6,1 C 4,4 C 86 % 0 lf 1013,9 hPa 0,0 l/m 0 min 0 min 0 W/m 31,4 km/h (5 Bft) 93,62 %
31.12.2015 04:38 5,8 C 6,1 C 4,4 C 86 % 0 lf 1014,0 hPa 0,0 l/m 0 min 0 min 0 W/m 31,4 km/h (5 Bft) 91,49 %
31.12.2015 04:40 5,8 C 6,1 C 4,4 C 86 % 0 lf 1014,0 hPa 0,0 l/m 0 min 0 min 0 W/m 29,3 km/h (5 Bft) 93,62 %
31.12.2015 04:42 5,8 C 6,1 C 4,4 C 86 % 0 lf 1014,0 hPa 0,0 l/m 0 min 0 min 0 W/m 35,6 km/h (5 Bft) 95,74 %
31.12.2015 04:44 5,8 C 6,1 C 4,4 C 86 % 0 lf 1014,0 hPa 0,0 l/m 0 min 0 min 0 W/m 39,7 km/h (6 Bft) 91,49 %
31.12.2015 04:46 5,8 C 6,1 C 4,4 C 86 % 0 lf 1014,0 hPa 0,0 l/m 0 min 0 min 0 W/m 29,3 km/h (5 Bft) 95,65 %
31.12.2015 04:48 5,8 C 6,1 C 4,4 C 86 % 0 lf 1014,1 hPa 0,0 l/m 0 min 0 min 0 W/m 25,1 km/h (4 Bft) 93,62 %
31.12.2015 04:50 5,8 C 6,1 C 4,4 C 86 % 0 lf 1014,0 hPa 0,0 l/m 0 min 0 min 0 W/m 27,2 km/h (4 Bft) 95,74 %
31.12.2015 04:52 5,8 C 6,1 C 4,4 C 86 % 0 lf 1013,9 hPa 0,0 l/m 0 min 0 min 0 W/m 31,4 km/h (5 Bft) 89,36 %
31.12.2015 04:54 5,8 C 6,1 C 4,4 C 86 % 0 lf 1013,9 hPa 0,0 l/m 0 min 0 min 0 W/m 25,1 km/h (4 Bft) 91,49 %
31.12.2015 04:56 5,8 C 6,1 C 4,4 C 86 % 0 lf 1014,0 hPa 0,0 l/m 0 min 0 min 0 W/m 33,5 km/h (5 Bft) 93,62 %
31.12.2015 04:58 5,8 C 6,1 C 5,0 C 86 % 0 lf 1014,0 hPa 0,0 l/m 0 min 0 min 0 W/m 31,4 km/h (5 Bft) 95,65 %
31.12.2015 05:00 5,8 C 6,1 C 5,0 C 86 % 0 lf 1013,9 hPa 0,0 l/m 0 min 0 min 0 W/m 29,3 km/h (5 Bft) 93,62 %
31.12.2015 05:02 5,8 C 6,1 C 5,0 C 86 % 0 lf 1013,9 hPa 0,0 l/m 0 min 0 min 0 W/m 23,0 km/h (4 Bft) 95,74 %
31.12.2015 05:04 5,8 C 6,1 C 5,0 C 86 % 0 lf 1014,0 hPa 0,0 l/m 0 min 0 min 0 W/m 33,5 km/h (5 Bft) 89,36 %
31.12.2015 05:06 5,8 C 6,1 C 5,0 C 86 % 0 lf 1014,0 hPa 0,0 l/m 0 min 0 min 0 W/m 29,3 km/h (5 Bft) 93,62 %
31.12.2015 05:08 5,9 C 6,1 C 5,0 C 86 % 0 lf 1014,0 hPa 0,0 l/m 0 min 0 min 0 W/m 23,0 km/h (4 Bft) 95,74 %
31.12.2015 05:10 5,9 C 6,1 C 5,0 C 86 % 0 lf 1014,1 hPa 0,0 l/m 0 min 0 min 0 W/m 27,2 km/h (4 Bft) 93,48 %
31.12.2015 05:12 5,9 C 6,1 C 5,0 C 86 % 0 lf 1014,0 hPa 0,0 l/m 0 min 0 min 0 W/m 23,0 km/h (4 Bft) 93,62 %
31.12.2015 05:14 5,9 C 6,1 C 5,0 C 86 % 0 lf 1014,0 hPa 0,0 l/m 0 min 0 min 0 W/m 27,2 km/h (4 Bft) 91,49 %
31.12.2015 05:16 5,9 C 6,1 C 5,0 C 86 % 0 lf 1014,0 hPa 0,0 l/m 0 min 0 min 0 W/m 25,1 km/h (4 Bft) 91,49 %
31.12.2015 05:18 5,9 C 6,1 C 5,0 C 86 % 0 lf 1014,0 hPa 0,0 l/m 0 min 0 min 0 W/m 29,3 km/h (5 Bft) 93,62 %
31.12.2015 05:20 6,0 C 6,1 C 5,0 C 86 % 0 lf 1014,1 hPa 0,0 l/m 0 min 0 min 0 W/m 23,0 km/h (4 Bft) 95,65 %
31.12.2015 05:22 6,0 C 6,1 C 5,0 C 86 % 0 lf 1014,1 hPa 0,0 l/m 0 min 0 min 0 W/m 27,2 km/h (4 Bft) 93,62 %
31.12.2015 05:24 6,0 C 6,1 C 5,0 C 86 % 0 lf 1014,0 hPa 0,0 l/m 0 min 0 min 0 W/m 27,2 km/h (4 Bft) 95,74 %
31.12.2015 05:26 6,1 C 6,7 C 5,0 C 86 % 0 lf 1014,1 hPa 0,0 l/m 0 min 0 min 0 W/m 27,2 km/h (4 Bft) 91,49 %
31.12.2015 05:28 6,1 C 6,7 C 5,0 C 86 % 0 lf 1014,1 hPa 0,0 l/m 0 min 0 min 0 W/m 33,5 km/h (5 Bft) 97,87 %
31.12.2015 05:30 6,1 C 6,7 C 5,0 C 86 % 0 lf 1014,1 hPa 0,0 l/m 0 min 0 min 0 W/m 29,3 km/h (5 Bft) 100,00 %
31.12.2015 05:32 6,1 C 6,7 C 5,0 C 86 % 0 lf 1014,1 hPa 0,0 l/m 0 min 0 min 0 W/m 25,1 km/h (4 Bft) 97,83 %
31.12.2015 05:34 6,1 C 6,7 C 5,0 C 86 % 0 lf 1014,2 hPa 0,0 l/m 0 min 0 min 0 W/m 27,2 km/h (4 Bft) 97,87 %
31.12.2015 05:36 6,1 C 6,7 C 5,0 C 86 % 0 lf 1014,1 hPa 0,0 l/m 0 min 0 min 0 W/m 16,7 km/h (3 Bft) 95,74 %
31.12.2015 05:38 6,1 C 6,7 C 5,0 C 86 % 0 lf 1014,3 hPa 0,0 l/m 0 min 0 min 0 W/m 20,9 km/h (4 Bft) 95,74 %
31.12.2015 05:40 6,2 C 6,7 C 5,0 C 86 % 0 lf 1014,2 hPa 0,0 l/m 0 min 0 min 0 W/m 27,2 km/h (4 Bft) 97,87 %
31.12.2015 05:42 6,2 C 6,7 C 5,0 C 86 % 0 lf 1014,2 hPa 0,0 l/m 0 min 0 min 0 W/m 25,1 km/h (4 Bft) 97,87 %
31.12.2015 05:44 6,2 C 6,7 C 5,0 C 86 % 0 lf 1014,3 hPa 0,0 l/m 0 min 0 min 0 W/m 12,6 km/h (3 Bft) 97,83 %
31.12.2015 05:46 6,2 C 6,7 C 5,0 C 86 % 0 lf 1014,3 hPa 0,0 l/m 0 min 0 min 0 W/m 25,1 km/h (4 Bft) 93,62 %
31.12.2015 05:48 6,2 C 6,7 C 5,0 C 86 % 0 lf 1014,3 hPa 0,0 l/m 0 min 0 min 0 W/m 18,8 km/h (3 Bft) 100,00 %
31.12.2015 05:50 6,2 C 6,7 C 5,0 C 86 % 0 lf 1014,4 hPa 0,0 l/m 0 min 0 min 0 W/m 29,3 km/h (5 Bft) 97,87 %
31.12.2015 05:52 6,2 C 6,7 C 5,6 C 86 % 0 lf 1014,4 hPa 0,0 l/m 0 min 0 min 0 W/m 29,3 km/h (5 Bft) 97,87 %
31.12.2015 05:54 6,3 C 6,7 C 5,6 C 86 % 0 lf 1014,4 hPa 0,0 l/m 0 min 0 min 0 W/m 14,6 km/h (3 Bft) 95,74 %
31.12.2015 05:56 6,3 C 6,7 C 5,6 C 86 % 0 lf 1014,4 hPa 0,0 l/m 0 min 0 min 0 W/m 20,9 km/h (4 Bft) 100,00 %
31.12.2015 05:58 6,3 C 6,7 C 5,6 C 86 % 0 lf 1014,5 hPa 0,0 l/m 0 min 0 min 0 W/m 20,9 km/h (4 Bft) 97,87 %
31.12.2015 06:00 6,3 C 6,7 C 5,6 C 86 % 0 lf 1014,6 hPa 0,0 l/m 0 min 0 min 0 W/m 16,7 km/h (3 Bft) 97,87 %
31.12.2015 06:02 6,4 C 6,7 C 5,6 C 86 % 0 lf 1014,8 hPa 0,0 l/m 0 min 0 min 0 W/m 20,9 km/h (4 Bft) 95,74 %
31.12.2015 06:06 6,4 C 6,7 C 5,6 C 86 % 0 lf 1014,8 hPa 0,0 l/m 0 min 0 min 0 W/m 14,6 km/h (3 Bft) 94,62 %
31.12.2015 06:08 6,4 C 6,7 C 5,6 C 86 % 0 lf 1014,8 hPa 0,0 l/m 0 min 0 min 0 W/m 14,6 km/h (3 Bft) 97,87 %
31.12.2015 06:10 6,4 C 6,7 C 5,0 C 86 % 1 lf 1014,8 hPa 0,0 l/m 0 min 2 min 0 W/m 20,9 km/h (4 Bft) 95,74 %
31.12.2015 06:12 6,4 C 6,1 C 5,0 C 86 % 0 lf 1014,8 hPa 0,0 l/m 0 min 2 min 0 W/m 16,7 km/h (3 Bft) 97,87 %
31.12.2015 06:14 6,4 C 6,1 C 5,0 C 86 % 0 lf 1014,9 hPa 0,0 l/m 0 min 2 min 0 W/m 18,8 km/h (3 Bft) 95,74 %
31.12.2015 06:16 6,4 C 5,6 C 4,4 C 86 % 2 lf 1014,9 hPa 0,2 l/m 0 min 2 min 0 W/m 14,6 km/h (3 Bft) 97,87 %
31.12.2015 06:18 6,5 C 5,6 C 4,4 C 86 % 1 lf 1014,9 hPa 0,0 l/m 0 min 2 min 0 W/m 16,7 km/h (3 Bft) 97,83 %
31.12.2015 06:20 6,5 C 5,6 C 4,4 C 87 % 1 lf 1014,9 hPa 0,0 l/m 0 min 2 min 0 W/m 18,8 km/h (3 Bft) 95,74 %
31.12.2015 06:22 6,5 C 5,6 C 4,4 C 87 % 0 lf 1014,9 hPa 0,0 l/m 0 min 2 min 0 W/m 16,7 km/h (3 Bft) 97,87 %
31.12.2015 06:24 6,5 C 5,6 C 4,4 C 87 % 0 lf 1014,9 hPa 0,0 l/m 0 min 2 min 0 W/m 18,8 km/h (3 Bft) 97,87 %
31.12.2015 06:26 6,5 C 5,6 C 4,4 C 88 % 0 lf 1015,0 hPa 0,2 l/m 0 min 2 min 0 W/m 16,7 km/h (3 Bft) 95,74 %
31.12.2015 06:28 6,5 C 5,6 C 4,4 C 88 % 3 lf 1015,0 hPa 0,0 l/m 0 min 2 min 0 W/m 14,6 km/h (3 Bft) 97,87 %
31.12.2015 06:30 6,4 C 5,0 C 3,9 C 88 % 2 lf 1015,1 hPa 0,2 l/m 0 min 2 min 0 W/m 14,6 km/h (3 Bft) 97,83 %
31.12.2015 06:32 6,4 C 5,6 C 4,4 C 88 % 2 lf 1015,1 hPa 0,0 l/m 0 min 2 min 0 W/m 12,6 km/h (3 Bft) 97,87 %
31.12.2015 06:34 6,4 C 5,6 C 4,4 C 89 % 3 lf 1015,1 hPa 0,0 l/m 0 min 2 min 0 W/m 14,6 km/h (3 Bft) 97,87 %
31.12.2015 06:36 6,4 C 5,6 C 4,4 C 89 % 4 lf 1015,2 hPa 0,2 l/m 0 min 2 min 0 W/m 10,5 km/h (2 Bft) 100,00 %
31.12.2015 06:38 6,4 C 5,6 C 3,9 C 89 % 5 lf 1015,2 hPa 0,0 l/m 0 min 2 min 0 W/m 10,5 km/h (2 Bft) 95,74 %
31.12.2015 06:40 6,4 C 5,6 C 3,9 C 89 % 4 lf 1015,2 hPa 0,0 l/m 0 min 2 min 0 W/m 10,5 km/h (2 Bft) 97,87 %
31.12.2015 06:42 6,4 C 5,6 C 4,4 C 89 % 4 lf 1015,2 hPa 0,2 l/m 0 min 2 min 0 W/m 14,6 km/h (3 Bft) 97,83 %
31.12.2015 06:44 6,3 C 5,6 C 4,4 C 90 % 4 lf 1015,2 hPa 0,0 l/m 0 min 2 min 0 W/m 8,4 km/h (2 Bft) 97,87 %
31.12.2015 06:46 6,3 C 5,6 C 4,4 C 90 % 3 lf 1015,3 hPa 0,0 l/m 0 min 2 min 0 W/m 12,6 km/h (3 Bft) 95,74 %
31.12.2015 06:48 6,3 C 5,6 C 3,9 C 90 % 3 lf 1015,4 hPa 0,2 l/m 0 min 2 min 0 W/m 10,5 km/h (2 Bft) 93,62 %
31.12.2015 06:50 6,2 C 5,6 C 4,4 C 90 % 3 lf 1015,4 hPa 0,0 l/m 0 min 2 min 0 W/m 8,4 km/h (2 Bft) 97,87 %
31.12.2015 06:52 6,2 C 5,6 C 4,4 C 90 % 4 lf 1015,4 hPa 0,2 l/m 0 min 2 min 0 W/m 10,5 km/h (2 Bft) 95,74 %
31.12.2015 06:54 6,2 C 5,6 C 4,4 C 91 % 8 lf 1015,5 hPa 0,0 l/m 0 min 2 min 0 W/m 8,4 km/h (2 Bft) 97,83 %
31.12.2015 06:56 6,2 C 5,6 C 4,4 C 91 % 10 lf 1015,5 hPa 0,0 l/m 0 min 2 min 0 W/m 10,5 km/h (2 Bft) 97,87 %
31.12.2015 06:58 6,2 C 5,6 C 4,4 C 91 % 11 lf 1015,5 hPa 0,2 l/m 0 min 2 min 0 W/m 6,3 km/h (2 Bft) 97,87 %
31.12.2015 07:00 6,1 C 5,6 C 4,4 C 91 % 13 lf 1015,5 hPa 0,0 l/m 0 min 2 min 0 W/m 6,3 km/h (2 Bft) 97,87 %
31.12.2015 07:02 6,1 C 5,6 C 4,4 C 91 % 13 lf 1015,6 hPa 0,2 l/m 0 min 2 min 0 W/m 8,4 km/h (2 Bft) 97,87 %
31.12.2015 07:04 6,1 C 5,6 C 4,4 C 91 % 14 lf 1015,6 hPa 0,0 l/m 0 min 2 min 0 W/m 10,5 km/h (2 Bft) 97,87 %
31.12.2015 07:06 6,1 C 5,6 C 4,4 C 92 % 14 lf 1015,6 hPa 0,0 l/m 0 min 2 min 0 W/m 10,5 km/h (2 Bft) 93,48 %
31.12.2015 07:08 6,1 C 5,6 C 4,4 C 92 % 14 lf 1015,6 hPa 0,2 l/m 0 min 2 min 0 W/m 10,5 km/h (2 Bft) 95,74 %
31.12.2015 07:10 6,1 C 5,6 C 4,4 C 92 % 15 lf 1015,7 hPa 0,0 l/m 0 min 2 min 0 W/m 10,5 km/h (2 Bft) 100,00 %
31.12.2015 07:12 6,1 C 5,6 C 4,4 C 92 % 15 lf 1015,7 hPa 0,0 l/m 0 min 2 min 0 W/m 10,5 km/h (2 Bft) 95,74 %
31.12.2015 07:14 6,1 C 5,6 C 4,4 C 92 % 15 lf 1015,7 hPa 0,2 l/m 0 min 2 min 0 W/m 8,4 km/h (2 Bft) 95,74 %
31.12.2015 07:16 6,1 C 5,6 C 4,4 C 92 % 15 lf 1015,7 hPa 0,0 l/m 0 min 2 min 0 W/m 8,4 km/h (2 Bft) 95,65 %
31.12.2015 07:18 6,1 C 5,6 C 4,4 C 92 % 14 lf 1015,7 hPa 0,0 l/m 0 min 2 min 0 W/m 10,5 km/h (2 Bft) 97,87 %
31.12.2015 07:20 6,1 C 5,6 C 4,4 C 92 % 15 lf 1015,8 hPa 0,0 l/m 0 min 2 min 0 W/m 14,6 km/h (3 Bft) 97,87 %
31.12.2015 07:22 6,1 C 5,6 C 4,4 C 93 % 15 lf 1015,8 hPa 0,0 l/m 0 min 2 min 0 W/m 10,5 km/h (2 Bft) 95,74 %
31.12.2015 07:24 6,0 C 5,6 C 4,4 C 93 % 15 lf 1015,8 hPa 0,0 l/m 0 min 2 min 0 W/m 10,5 km/h (2 Bft) 97,87 %
31.12.2015 07:26 6,1 C 5,6 C 4,4 C 93 % 14 lf 1015,8 hPa 0,0 l/m 0 min 2 min 0 W/m 10,5 km/h (2 Bft) 95,74 %
31.12.2015 07:28 6,0 C 5,6 C 4,4 C 93 % 14 lf 1015,9 hPa 0,0 l/m 0 min 2 min 0 W/m 8,4 km/h (2 Bft) 93,48 %
31.12.2015 07:30 6,1 C 5,6 C 4,4 C 93 % 14 lf 1016,0 hPa 0,0 l/m 0 min 2 min 0 W/m 10,5 km/h (2 Bft) 91,49 %
31.12.2015 07:32 6,0 C 5,6 C 4,4 C 93 % 14 lf 1015,9 hPa 0,0 l/m 0 min 2 min 0 W/m 10,5 km/h (2 Bft) 97,87 %
31.12.2015 07:34 6,0 C 5,6 C 4,4 C 93 % 14 lf 1016,1 hPa 0,0 l/m 0 min 2 min 0 W/m 8,4 km/h (2 Bft) 97,87 %
31.12.2015 07:36 6,1 C 5,6 C 4,4 C 93 % 14 lf 1016,1 hPa 0,0 l/m 0 min 2 min 0 W/m 14,6 km/h (3 Bft) 95,74 %
31.12.2015 07:38 6,1 C 5,6 C 4,4 C 93 % 14 lf 1016,3 hPa 0,0 l/m 0 min 0 min 0 W/m 10,5 km/h (2 Bft) 95,83 %
31.12.2015 07:40 6,1 C 6,1 C 4,4 C 94 % 14 lf 1016,2 hPa 0,0 l/m 0 min 2 min 0 W/m 10,5 km/h (2 Bft) 97,87 %
31.12.2015 07:42 6,1 C 6,1 C 4,4 C 94 % 14 lf 1016,3 hPa 0,0 l/m 0 min 0 min 0 W/m 12,6 km/h (3 Bft) 95,65 %
31.12.2015 07:44 6,1 C 6,1 C 4,4 C 94 % 14 lf 1016,3 hPa 0,0 l/m 0 min 0 min 0 W/m 10,5 km/h (2 Bft) 91,49 %
31.12.2015 07:46 6,1 C 6,1 C 4,4 C 94 % 14 lf 1016,3 hPa 0,0 l/m 0 min 2 min 0 W/m 12,6 km/h (3 Bft) 95,74 %
31.12.2015 07:48 6,1 C 6,1 C 4,4 C 94 % 14 lf 1016,4 hPa 0,0 l/m 0 min 2 min 0 W/m 10,5 km/h (2 Bft) 93,62 %
31.12.2015 07:50 6,2 C 6,1 C 5,0 C 94 % 14 lf 1016,4 hPa 0,0 l/m 0 min 2 min 0 W/m 12,6 km/h (3 Bft) 97,87 %
31.12.2015 07:52 6,2 C 6,1 C 5,0 C 94 % 13 lf 1016,4 hPa 0,0 l/m 0 min 2 min 0 W/m 12,6 km/h (3 Bft) 95,65 %
31.12.2015 07:54 6,2 C 6,1 C 5,0 C 94 % 13 lf 1016,5 hPa 0,2 l/m 0 min 2 min 0 W/m 8,4 km/h (2 Bft) 97,87 %
31.12.2015 07:56 6,2 C 6,1 C 5,0 C 94 % 13 lf 1016,5 hPa 0,0 l/m 0 min 2 min 0 W/m 14,6 km/h (3 Bft) 95,74 %
31.12.2015 07:58 6,3 C 6,1 C 5,0 C 94 % 13 lf 1016,5 hPa 0,0 l/m 0 min 2 min 0 W/m 10,5 km/h (2 Bft) 93,62 %
31.12.2015 08:00 6,3 C 6,1 C 5,0 C 94 % 13 lf 1016,6 hPa 0,0 l/m 0 min 2 min 0 W/m 12,6 km/h (3 Bft) 91,49 %
31.12.2015 08:02 6,3 C 6,1 C 5,0 C 95 % 14 lf 1016,6 hPa 0,0 l/m 0 min 2 min 0 W/m 10,5 km/h (2 Bft) 95,74 %
31.12.2015 08:04 6,3 C 6,1 C 5,0 C 95 % 14 lf 1016,7 hPa 0,0 l/m 0 min 2 min 0 W/m 10,5 km/h (2 Bft) 93,48 %
31.12.2015 08:06 6,4 C 6,1 C 5,0 C 95 % 13 lf 1016,6 hPa 0,0 l/m 0 min 2 min 0 W/m 12,6 km/h (3 Bft) 95,74 %
31.12.2015 08:08 6,4 C 6,1 C 5,0 C 95 % 13 lf 1016,7 hPa 0,0 l/m 0 min 2 min 0 W/m 8,4 km/h (2 Bft) 97,87 %
31.12.2015 08:10 6,4 C 6,1 C 5,0 C 95 % 13 lf 1016,7 hPa 0,0 l/m 0 min 2 min 0 W/m 10,5 km/h (2 Bft) 97,87 %
31.12.2015 08:12 6,4 C 6,1 C 5,0 C 95 % 13 lf 1016,7 hPa 0,2 l/m 0 min 2 min 0 W/m 8,4 km/h (2 Bft) 95,74 %
31.12.2015 08:14 6,4 C 6,1 C 5,0 C 95 % 13 lf 1016,8 hPa 0,0 l/m 0 min 2 min 0 W/m 8,4 km/h (2 Bft) 95,74 %
31.12.2015 08:16 6,4 C 6,1 C 5,0 C 95 % 13 lf 1016,8 hPa 0,0 l/m 0 min 2 min 0 W/m 10,5 km/h (2 Bft) 97,83 %
31.12.2015 08:18 6,4 C 6,7 C 5,0 C 95 % 13 lf 1016,8 hPa 0,0 l/m 0 min 2 min 0 W/m 10,5 km/h (2 Bft) 97,87 %
31.12.2015 08:20 6,4 C 6,7 C 5,0 C 95 % 13 lf 1016,9 hPa 0,0 l/m 0 min 2 min 0 W/m 6,3 km/h (2 Bft) 97,87 %
31.12.2015 08:22 6,5 C 6,7 C 5,0 C 95 % 13 lf 1016,8 hPa 0,0 l/m 0 min 2 min 0 W/m 8,4 km/h (2 Bft) 97,87 %
31.12.2015 08:24 6,5 C 6,7 C 5,0 C 95 % 13 lf 1016,9 hPa 0,0 l/m 0 min 0 min 0 W/m 6,3 km/h (2 Bft) 95,74 %
31.12.2015 08:26 6,6 C 6,7 C 5,0 C 95 % 12 lf 1016,8 hPa 0,0 l/m 0 min 0 min 0 W/m 8,4 km/h (2 Bft) 91,49 %
31.12.2015 08:28 6,6 C 6,7 C 5,0 C 95 % 12 lf 1016,9 hPa 0,0 l/m 0 min 0 min 0 W/m 8,4 km/h (2 Bft) 95,65 %
31.12.2015 08:30 6,6 C 6,7 C 5,0 C 96 % 12 lf 1016,9 hPa 0,0 l/m 0 min 0 min 0 W/m 8,4 km/h (2 Bft) 97,87 %
31.12.2015 08:32 6,6 C 6,7 C 5,0 C 96 % 12 lf 1017,0 hPa 0,0 l/m 0 min 0 min 0 W/m 6,3 km/h (2 Bft) 95,74 %
31.12.2015 08:34 6,6 C 6,7 C 5,6 C 96 % 12 lf 1017,0 hPa 0,0 l/m 0 min 0 min 0 W/m 8,4 km/h (2 Bft) 93,62 %
31.12.2015 08:36 6,7 C 6,7 C 5,6 C 96 % 11 lf 1017,0 hPa 0,0 l/m 0 min 0 min 0 W/m 8,4 km/h (2 Bft) 95,74 %
31.12.2015 08:38 6,7 C 6,7 C 5,6 C 96 % 11 lf 1017,0 hPa 0,0 l/m 0 min 0 min 0 W/m 8,4 km/h (2 Bft) 89,36 %
31.12.2015 08:40 6,7 C 6,7 C 5,6 C 96 % 11 lf 1017,1 hPa 0,0 l/m 0 min 0 min 0 W/m 6,3 km/h (2 Bft) 93,48 %
31.12.2015 08:42 6,7 C 6,7 C 5,6 C 96 % 11 lf 1017,2 hPa 0,0 l/m 0 min 0 min 0 W/m 10,5 km/h (2 Bft) 91,49 %
31.12.2015 08:44 6,7 C 6,7 C 5,6 C 96 % 11 lf 1017,2 hPa 0,0 l/m 0 min 0 min 1 W/m 10,5 km/h (2 Bft) 91,49 %
31.12.2015 08:46 6,8 C 7,2 C 5,6 C 96 % 11 lf 1017,2 hPa 0,0 l/m 0 min 0 min 1 W/m 10,5 km/h (2 Bft) 85,11 %
31.12.2015 08:48 6,8 C 7,2 C 5,6 C 96 % 10 lf 1017,2 hPa 0,0 l/m 0 min 0 min 3 W/m 14,6 km/h (3 Bft) 93,62 %
31.12.2015 08:50 6,9 C 7,2 C 5,6 C 96 % 10 lf 1017,3 hPa 0,0 l/m 0 min 0 min 3 W/m 10,5 km/h (2 Bft) 93,48 %
31.12.2015 08:52 6,9 C 7,2 C 5,6 C 96 % 10 lf 1017,3 hPa 0,0 l/m 0 min 0 min 5 W/m 10,5 km/h (2 Bft) 93,62 %
31.12.2015 08:54 7,0 C 7,2 C 5,6 C 96 % 9 lf 1017,3 hPa 0,0 l/m 0 min 0 min 6 W/m 14,6 km/h (3 Bft) 91,49 %
31.12.2015 08:56 7,0 C 7,2 C 6,1 C 96 % 9 lf 1017,4 hPa 0,0 l/m 0 min 0 min 7 W/m 14,6 km/h (3 Bft) 91,49 %
31.12.2015 08:58 7,1 C 7,2 C 6,1 C 96 % 8 lf 1017,4 hPa 0,0 l/m 0 min 0 min 8 W/m 20,9 km/h (4 Bft) 91,49 %
31.12.2015 09:00 7,1 C 7,2 C 6,1 C 96 % 7 lf 1017,4 hPa 0,0 l/m 0 min 0 min 8 W/m 14,6 km/h (3 Bft) 93,62 %
31.12.2015 09:02 7,2 C 7,2 C 6,1 C 96 % 6 lf 1017,4 hPa 0,0 l/m 0 min 0 min 8 W/m 14,6 km/h (3 Bft) 91,30 %
31.12.2015 09:04 7,2 C 7,2 C 6,1 C 96 % 4 lf 1017,5 hPa 0,0 l/m 0 min 0 min 10 W/m 18,8 km/h (3 Bft) 91,49 %
31.12.2015 09:06 7,2 C 7,2 C 6,1 C 96 % 4 lf 1017,6 hPa 0,0 l/m 0 min 0 min 10 W/m 23,0 km/h (4 Bft) 95,74 %
31.12.2015 09:08 7,3 C 7,2 C 6,1 C 96 % 3 lf 1017,6 hPa 0,0 l/m 0 min 0 min 11 W/m 23,0 km/h (4 Bft) 93,62 %
31.12.2015 09:10 7,3 C 7,2 C 6,1 C 96 % 3 lf 1017,7 hPa 0,0 l/m 0 min 0 min 12 W/m 16,7 km/h (3 Bft) 97,87 %
31.12.2015 09:12 7,4 C 7,8 C 6,1 C 96 % 2 lf 1017,6 hPa 0,0 l/m 0 min 0 min 12 W/m 23,0 km/h (4 Bft) 95,74 %
31.12.2015 09:14 7,4 C 7,8 C 6,1 C 96 % 1 lf 1017,7 hPa 0,0 l/m 0 min 0 min 12 W/m 18,8 km/h (3 Bft) 95,65 %
31.12.2015 09:16 7,4 C 7,8 C 6,1 C 96 % 1 lf 1017,7 hPa 0,0 l/m 0 min 0 min 12 W/m 20,9 km/h (4 Bft) 95,74 %
31.12.2015 09:18 7,5 C 7,8 C 6,1 C 96 % 0 lf 1017,8 hPa 0,0 l/m 0 min 0 min 13 W/m 18,8 km/h (3 Bft) 97,87 %
31.12.2015 09:20 7,5 C 7,8 C 6,1 C 97 % 0 lf 1017,8 hPa 0,0 l/m 0 min 0 min 14 W/m 14,6 km/h (3 Bft) 95,74 %
31.12.2015 09:22 7,6 C 7,2 C 6,1 C 97 % 0 lf 1017,8 hPa 0,0 l/m 0 min 0 min 15 W/m 14,6 km/h (3 Bft) 97,87 %
31.12.2015 09:24 7,6 C 7,8 C 6,1 C 97 % 0 lf 1017,9 hPa 0,0 l/m 0 min 0 min 15 W/m 23,0 km/h (4 Bft) 95,74 %
31.12.2015 09:26 7,6 C 7,8 C 6,1 C 97 % 0 lf 1017,9 hPa 0,0 l/m 0 min 0 min 16 W/m 23,0 km/h (4 Bft) 95,65 %
31.12.2015 09:28 7,6 C 7,8 C 6,1 C 97 % 0 lf 1018,0 hPa 0,0 l/m 0 min 0 min 17 W/m 29,3 km/h (5 Bft) 100,00 %
31.12.2015 09:30 7,6 C 7,8 C 6,1 C 97 % 0 lf 1017,9 hPa 0,0 l/m 0 min 0 min 17 W/m 16,7 km/h (3 Bft) 100,00 %
31.12.2015 09:32 7,7 C 7,8 C 6,1 C 97 % 0 lf 1018,0 hPa 0,0 l/m 0 min 0 min 17 W/m 18,8 km/h (3 Bft) 95,74 %
31.12.2015 09:34 7,7 C 7,8 C 6,1 C 97 % 0 lf 1018,1 hPa 0,0 l/m 0 min 0 min 18 W/m 20,9 km/h (4 Bft) 100,00 %
31.12.2015 09:36 7,7 C 7,8 C 6,1 C 97 % 0 lf 1018,0 hPa 0,0 l/m 0 min 0 min 20 W/m 16,7 km/h (3 Bft) 91,49 %
31.12.2015 09:38 7,7 C 7,8 C 6,1 C 97 % 0 lf 1018,0 hPa 0,0 l/m 0 min 0 min 23 W/m 23,0 km/h (4 Bft) 97,83 %
31.12.2015 09:40 7,7 C 7,8 C 6,1 C 96 % 0 lf 1018,1 hPa 0,0 l/m 0 min 0 min 28 W/m 25,1 km/h (4 Bft) 97,87 %
31.12.2015 09:42 7,7 C 7,8 C 6,1 C 96 % 0 lf 1018,1 hPa 0,0 l/m 0 min 0 min 30 W/m 16,7 km/h (3 Bft) 93,62 %
31.12.2015 09:44 7,7 C 7,8 C 6,1 C 96 % 0 lf 1018,2 hPa 0,0 l/m 0 min 0 min 33 W/m 20,9 km/h (4 Bft) 95,74 %
31.12.2015 09:46 7,7 C 7,8 C 6,1 C 96 % 0 lf 1018,2 hPa 0,0 l/m 0 min 0 min 33 W/m 18,8 km/h (3 Bft) 100,00 %
31.12.2015 09:48 7,8 C 7,8 C 6,1 C 96 % 0 lf 1018,2 hPa 0,0 l/m 0 min 0 min 33 W/m 29,3 km/h (5 Bft) 97,87 %
31.12.2015 09:50 7,8 C 7,8 C 6,1 C 96 % 0 lf 1018,2 hPa 0,0 l/m 0 min 0 min 31 W/m 20,9 km/h (4 Bft) 100,00 %
31.12.2015 09:52 7,8 C 7,8 C 6,1 C 96 % 0 lf 1018,3 hPa 0,0 l/m 0 min 0 min 31 W/m 23,0 km/h (4 Bft) 95,74 %
31.12.2015 09:54 7,8 C 7,8 C 6,1 C 96 % 0 lf 1018,3 hPa 0,0 l/m 0 min 0 min 32 W/m 18,8 km/h (3 Bft) 97,87 %
31.12.2015 09:56 7,8 C 7,8 C 6,1 C 96 % 0 lf 1018,3 hPa 0,0 l/m 0 min 0 min 33 W/m 23,0 km/h (4 Bft) 93,62 %
31.12.2015 09:58 7,8 C 7,8 C 6,1 C 97 % 0 lf 1018,4 hPa 0,0 l/m 0 min 0 min 36 W/m 18,8 km/h (3 Bft) 100,00 %
31.12.2015 10:00 7,8 C 7,8 C 6,1 C 97 % 0 lf 1018,4 hPa 0,0 l/m 0 min 0 min 40 W/m 27,2 km/h (4 Bft) 93,48 %
31.12.2015 10:02 7,9 C 7,8 C 6,1 C 97 % 0 lf 1018,3 hPa 0,0 l/m 0 min 0 min 43 W/m 18,8 km/h (3 Bft) 97,87 %
31.12.2015 10:04 7,9 C 7,8 C 6,1 C 97 % 0 lf 1018,4 hPa 0,0 l/m 0 min 0 min 47 W/m 16,7 km/h (3 Bft) 97,87 %
31.12.2015 10:06 7,9 C 7,8 C 6,1 C 96 % 0 lf 1018,3 hPa 0,0 l/m 0 min 0 min 51 W/m 31,4 km/h (5 Bft) 97,87 %
31.12.2015 10:08 7,9 C 7,8 C 6,1 C 96 % 0 lf 1018,4 hPa 0,0 l/m 0 min 0 min 53 W/m 16,7 km/h (3 Bft) 95,74 %
31.12.2015 10:10 7,9 C 7,8 C 6,1 C 96 % 0 lf 1018,4 hPa 0,0 l/m 0 min 0 min 55 W/m 18,8 km/h (3 Bft) 97,87 %
31.12.2015 10:12 7,9 C 7,8 C 6,1 C 96 % 0 lf 1018,5 hPa 0,0 l/m 0 min 0 min 58 W/m 16,7 km/h (3 Bft) 95,65 %
31.12.2015 10:14 7,9 C 7,8 C 6,1 C 96 % 0 lf 1018,5 hPa 0,0 l/m 0 min 0 min 60 W/m 14,6 km/h (3 Bft) 95,74 %
31.12.2015 10:16 7,9 C 7,8 C 6,1 C 96 % 0 lf 1018,5 hPa 0,0 l/m 0 min 0 min 65 W/m 25,1 km/h (4 Bft) 97,87 %
31.12.2015 10:18 8,0 C 8,3 C 6,1 C 96 % 0 lf 1018,5 hPa 0,0 l/m 0 min 0 min 68 W/m 16,7 km/h (3 Bft) 95,74 %
31.12.2015 10:20 8,0 C 8,3 C 6,1 C 96 % 0 lf 1018,5 hPa 0,0 l/m 0 min 0 min 73 W/m 16,7 km/h (3 Bft) 95,74 %
31.12.2015 10:22 8,0 C 8,3 C 6,7 C 96 % 0 lf 1018,6 hPa 0,0 l/m 0 min 0 min 75 W/m 20,9 km/h (4 Bft) 93,62 %
31.12.2015 10:24 8,0 C 8,3 C 6,7 C 96 % 0 lf 1018,5 hPa 0,0 l/m 0 min 0 min 79 W/m 27,2 km/h (4 Bft) 93,48 %
31.12.2015 10:26 8,1 C 8,3 C 6,7 C 96 % 0 lf 1018,5 hPa 0,0 l/m 0 min 0 min 80 W/m 25,1 km/h (4 Bft) 95,74 %
31.12.2015 10:28 8,1 C 8,3 C 6,7 C 96 % 0 lf 1018,6 hPa 0,0 l/m 0 min 0 min 84 W/m 20,9 km/h (4 Bft) 95,74 %
31.12.2015 10:30 8,1 C 8,3 C 6,7 C 96 % 0 lf 1018,7 hPa 0,0 l/m 0 min 0 min 89 W/m 20,9 km/h (4 Bft) 91,49 %
31.12.2015 10:32 8,1 C 8,3 C 6,7 C 96 % 0 lf 1018,6 hPa 0,0 l/m 0 min 0 min 92 W/m 20,9 km/h (4 Bft) 95,74 %
31.12.2015 10:34 8,1 C 8,3 C 6,7 C 96 % 0 lf 1018,7 hPa 0,0 l/m 0 min 0 min 94 W/m 23,0 km/h (4 Bft) 95,74 %
31.12.2015 10:36 8,1 C 8,3 C 6,7 C 96 % 0 lf 1018,7 hPa 0,0 l/m 0 min 0 min 93 W/m 25,1 km/h (4 Bft) 93,48 %
31.12.2015 10:38 8,1 C 8,3 C 6,7 C 96 % 0 lf 1018,8 hPa 0,0 l/m 0 min 0 min 94 W/m 16,7 km/h (3 Bft) 93,62 %
31.12.2015 10:40 8,2 C 8,3 C 6,7 C 96 % 0 lf 1018,8 hPa 0,0 l/m 0 min 0 min 97 W/m 20,9 km/h (4 Bft) 93,62 %
31.12.2015 10:42 8,2 C 8,3 C 6,7 C 96 % 0 lf 1018,7 hPa 0,0 l/m 0 min 0 min 97 W/m 18,8 km/h (3 Bft) 93,62 %
31.12.2015 10:44 8,2 C 8,3 C 6,7 C 95 % 0 lf 1018,8 hPa 0,0 l/m 0 min 0 min 96 W/m 29,3 km/h (5 Bft) 97,87 %
31.12.2015 10:46 8,2 C 8,3 C 6,7 C 95 % 0 lf 1018,8 hPa 0,0 l/m 0 min 0 min 97 W/m 23,0 km/h (4 Bft) 91,49 %
31.12.2015 10:48 8,2 C 8,9 C 6,7 C 95 % 0 lf 1018,8 hPa 0,0 l/m 0 min 0 min 100 W/m 20,9 km/h (4 Bft) 97,83 %
31.12.2015 10:50 8,2 C 8,3 C 6,7 C 95 % 0 lf 1018,8 hPa 0,0 l/m 0 min 0 min 102 W/m 20,9 km/h (4 Bft) 95,74 %
31.12.2015 10:52 8,3 C 8,9 C 6,7 C 95 % 0 lf 1018,9 hPa 0,0 l/m 0 min 0 min 104 W/m 20,9 km/h (4 Bft) 100,00 %
31.12.2015 10:54 8,3 C 8,9 C 6,7 C 95 % 0 lf 1018,9 hPa 0,0 l/m 0 min 0 min 102 W/m 25,1 km/h (4 Bft) 97,87 %
31.12.2015 10:56 8,3 C 8,9 C 6,7 C 95 % 0 lf 1018,9 hPa 0,0 l/m 0 min 0 min 102 W/m 23,0 km/h (4 Bft) 93,62 %
31.12.2015 10:58 8,3 C 8,9 C 6,7 C 95 % 0 lf 1018,9 hPa 0,0 l/m 0 min 0 min 104 W/m 25,1 km/h (4 Bft) 97,87 %
31.12.2015 11:00 8,3 C 8,9 C 6,7 C 94 % 0 lf 1019,1 hPa 0,0 l/m 0 min 0 min 107 W/m 20,9 km/h (4 Bft) 97,83 %
31.12.2015 11:02 8,4 C 8,9 C 6,7 C 94 % 0 lf 1019,0 hPa 0,0 l/m 0 min 0 min 110 W/m 23,0 km/h (4 Bft) 97,87 %
31.12.2015 11:04 8,4 C 8,9 C 6,7 C 94 % 0 lf 1019,1 hPa 0,0 l/m 0 min 0 min 111 W/m 20,9 km/h (4 Bft) 100,00 %
31.12.2015 11:06 8,4 C 8,9 C 6,7 C 94 % 0 lf 1019,1 hPa 0,0 l/m 0 min 0 min 110 W/m 20,9 km/h (4 Bft) 97,87 %
31.12.2015 11:08 8,4 C 8,9 C 6,7 C 94 % 0 lf 1019,2 hPa 0,0 l/m 0 min 0 min 111 W/m 16,7 km/h (3 Bft) 97,87 %
31.12.2015 11:10 8,4 C 8,9 C 6,7 C 94 % 0 lf 1019,3 hPa 0,0 l/m 0 min 0 min 110 W/m 23,0 km/h (4 Bft) 100,00 %
31.12.2015 11:12 8,5 C 8,9 C 6,7 C 93 % 0 lf 1019,2 hPa 0,0 l/m 0 min 0 min 109 W/m 23,0 km/h (4 Bft) 100,00 %
31.12.2015 11:14 8,5 C 8,9 C 6,7 C 93 % 0 lf 1019,3 hPa 0,0 l/m 0 min 0 min 115 W/m 20,9 km/h (4 Bft) 100,00 %
31.12.2015 11:16 8,5 C 9,4 C 6,7 C 93 % 0 lf 1019,2 hPa 0,0 l/m 2 min 0 min 128 W/m 16,7 km/h (3 Bft) 97,87 %
31.12.2015 11:18 8,6 C 9,4 C 6,7 C 93 % 0 lf 1019,2 hPa 0,0 l/m 2 min 0 min 148 W/m 23,0 km/h (4 Bft) 97,87 %
31.12.2015 11:20 8,6 C 10,0 C 6,7 C 93 % 0 lf 1019,2 hPa 0,0 l/m 2 min 0 min 149 W/m 20,9 km/h (4 Bft) 100,00 %
31.12.2015 11:22 8,6 C 10,6 C 6,7 C 93 % 0 lf 1019,2 hPa 0,0 l/m 2 min 0 min 172 W/m 20,9 km/h (4 Bft) 100,00 %
31.12.2015 11:24 8,6 C 11,1 C 6,7 C 92 % 0 lf 1019,2 hPa 0,0 l/m 2 min 0 min 191 W/m 25,1 km/h (4 Bft) 100,00 %
31.12.2015 11:26 8,7 C 12,2 C 6,7 C 92 % 0 lf 1019,2 hPa 0,0 l/m 2 min 0 min 183 W/m 20,9 km/h (4 Bft) 97,87 %
31.12.2015 11:28 8,7 C 12,8 C 6,7 C 92 % 0 lf 1019,2 hPa 0,0 l/m 2 min 0 min 183 W/m 23,0 km/h (4 Bft) 97,87 %
31.12.2015 11:30 8,8 C 12,8 C 6,7 C 92 % 0 lf 1019,2 hPa 0,0 l/m 2 min 0 min 169 W/m 20,9 km/h (4 Bft) 100,00 %
31.12.2015 11:32 8,8 C 12,2 C 6,7 C 92 % 0 lf 1019,2 hPa 0,0 l/m 2 min 0 min 158 W/m 33,5 km/h (5 Bft) 97,87 %
31.12.2015 11:34 8,8 C 12,2 C 6,7 C 91 % 0 lf 1019,3 hPa 0,0 l/m 2 min 0 min 170 W/m 35,6 km/h (5 Bft) 97,83 %
31.12.2015 11:36 8,9 C 12,8 C 6,7 C 91 % 0 lf 1019,2 hPa 0,0 l/m 2 min 0 min 173 W/m 16,7 km/h (3 Bft) 93,62 %
31.12.2015 11:38 8,9 C 13,3 C 6,7 C 91 % 0 lf 1019,2 hPa 0,0 l/m 2 min 0 min 210 W/m 16,7 km/h (3 Bft) 95,74 %
31.12.2015 11:40 9,0 C 14,4 C 6,7 C 90 % 0 lf 1019,3 hPa 0,0 l/m 2 min 0 min 230 W/m 20,9 km/h (4 Bft) 95,74 %
31.12.2015 11:42 9,1 C 13,9 C 6,7 C 90 % 0 lf 1019,3 hPa 0,0 l/m 2 min 0 min 227 W/m 29,3 km/h (5 Bft) 95,74 %
31.12.2015 11:44 9,2 C 13,3 C 6,7 C 90 % 0 lf 1019,3 hPa 0,0 l/m 2 min 0 min 217 W/m 29,3 km/h (5 Bft) 97,87 %
31.12.2015 11:46 9,2 C 13,9 C 7,2 C 89 % 0 lf 1019,3 hPa 0,0 l/m 2 min 0 min 217 W/m 25,1 km/h (4 Bft) 97,83 %
31.12.2015 11:48 9,3 C 13,9 C 7,2 C 89 % 0 lf 1019,3 hPa 0,0 l/m 2 min 0 min 228 W/m 29,3 km/h (5 Bft) 95,74 %
31.12.2015 11:50 9,3 C 14,4 C 7,2 C 89 % 0 lf 1019,3 hPa 0,0 l/m 2 min 0 min 212 W/m 14,6 km/h (3 Bft) 93,62 %
31.12.2015 11:52 9,4 C 13,9 C 7,2 C 88 % 0 lf 1019,3 hPa 0,0 l/m 2 min 0 min 181 W/m 33,5 km/h (5 Bft) 95,74 %
31.12.2015 11:54 9,4 C 13,9 C 7,2 C 88 % 0 lf 1019,3 hPa 0,0 l/m 2 min 0 min 194 W/m 29,3 km/h (5 Bft) 93,62 %
31.12.2015 11:56 9,5 C 12,8 C 6,7 C 88 % 0 lf 1019,3 hPa 0,0 l/m 2 min 0 min 151 W/m 33,5 km/h (5 Bft) 93,62 %
31.12.2015 11:58 9,5 C 12,2 C 6,7 C 87 % 0 lf 1019,4 hPa 0,0 l/m 2 min 0 min 163 W/m 33,5 km/h (5 Bft) 95,65 %
31.12.2015 12:00 9,6 C 12,2 C 6,7 C 86 % 0 lf 1019,3 hPa 0,0 l/m 2 min 0 min 159 W/m 43,9 km/h (6 Bft) 95,74 %
31.12.2015 12:03 9,6 C 11,7 C 6,7 C 85 % 0 lf 1019,5 hPa 0,0 l/m 0 min 0 min 133 W/m 33,5 km/h (5 Bft) 94,29 %
31.12.2015 12:04 9,6 C 11,7 C 6,7 C 85 % 0 lf 1019,5 hPa 0,0 l/m 1 min 0 min 144 W/m 29,3 km/h (5 Bft) 100,00 %
31.12.2015 12:06 9,6 C 12,8 C 7,2 C 85 % 0 lf 1019,5 hPa 0,0 l/m 2 min 0 min 218 W/m 25,1 km/h (4 Bft) 93,62 %
31.12.2015 12:08 9,6 C 13,9 C 7,2 C 85 % 0 lf 1019,4 hPa 0,0 l/m 2 min 0 min 262 W/m 27,2 km/h (4 Bft) 93,62 %
31.12.2015 12:10 9,7 C 13,9 C 7,2 C 85 % 0 lf 1019,3 hPa 0,0 l/m 2 min 0 min 247 W/m 20,9 km/h (4 Bft) 93,48 %
31.12.2015 12:12 9,7 C 13,9 C 7,2 C 85 % 0 lf 1019,3 hPa 0,0 l/m 2 min 0 min 246 W/m 33,5 km/h (5 Bft) 91,49 %
31.12.2015 12:14 9,8 C 13,3 C 7,2 C 85 % 0 lf 1019,4 hPa 0,0 l/m 2 min 0 min 211 W/m 23,0 km/h (4 Bft) 95,74 %
31.12.2015 12:16 9,8 C 12,8 C 7,2 C 85 % 0 lf 1019,4 hPa 0,0 l/m 2 min 0 min 182 W/m 16,7 km/h (3 Bft) 93,62 %
31.12.2015 12:18 9,8 C 12,8 C 7,2 C 85 % 0 lf 1019,4 hPa 0,0 l/m 2 min 0 min 138 W/m 27,2 km/h (4 Bft) 95,74 %
31.12.2015 12:20 9,9 C 13,3 C 7,2 C 84 % 0 lf 1019,4 hPa 0,0 l/m 2 min 0 min 188 W/m 20,9 km/h (4 Bft) 93,62 %
31.12.2015 12:22 9,9 C 13,3 C 7,2 C 84 % 0 lf 1019,4 hPa 0,0 l/m 2 min 0 min 174 W/m 23,0 km/h (4 Bft) 95,65 %
31.12.2015 12:24 9,9 C 12,8 C 7,2 C 84 % 0 lf 1019,5 hPa 0,0 l/m 0 min 0 min 134 W/m 25,1 km/h (4 Bft) 87,23 %
31.12.2015 12:26 9,9 C 12,8 C 6,7 C 84 % 0 lf 1019,5 hPa 0,0 l/m 2 min 0 min 162 W/m 29,3 km/h (5 Bft) 95,74 %
31.12.2015 12:28 9,9 C 12,2 C 6,7 C 83 % 0 lf 1019,5 hPa 0,0 l/m 2 min 0 min 151 W/m 37,7 km/h (5 Bft) 95,74 %
31.12.2015 12:30 9,9 C 12,2 C 6,7 C 83 % 0 lf 1019,6 hPa 0,0 l/m 0 min 0 min 134 W/m 29,3 km/h (5 Bft) 93,62 %
31.12.2015 12:32 9,9 C 12,8 C 7,2 C 83 % 0 lf 1019,6 hPa 0,0 l/m 2 min 0 min 193 W/m 31,4 km/h (5 Bft) 93,62 %
31.12.2015 12:34 9,9 C 13,3 C 7,2 C 83 % 0 lf 1019,6 hPa 0,0 l/m 2 min 0 min 279 W/m 18,8 km/h (3 Bft) 95,65 %
31.12.2015 12:36 9,9 C 14,4 C 7,2 C 83 % 0 lf 1019,6 hPa 0,0 l/m 2 min 0 min 275 W/m 18,8 km/h (3 Bft) 95,74 %
31.12.2015 12:38 9,9 C 14,4 C 7,2 C 83 % 0 lf 1019,6 hPa 0,0 l/m 2 min 0 min 270 W/m 31,4 km/h (5 Bft) 91,49 %
31.12.2015 12:40 10,0 C 13,9 C 7,2 C 83 % 0 lf 1019,7 hPa 0,0 l/m 2 min 0 min 258 W/m 27,2 km/h (4 Bft) 93,62 %
31.12.2015 12:42 10,1 C 13,9 C 7,2 C 83 % 0 lf 1019,7 hPa 0,0 l/m 2 min 0 min 214 W/m 20,9 km/h (4 Bft) 93,62 %
31.12.2015 12:44 10,1 C 13,3 C 7,2 C 82 % 0 lf 1019,7 hPa 0,0 l/m 2 min 0 min 151 W/m 23,0 km/h (4 Bft) 95,65 %
31.12.2015 12:46 10,1 C 12,8 C 7,2 C 82 % 0 lf 1019,7 hPa 0,0 l/m 0 min 0 min 136 W/m 33,5 km/h (5 Bft) 91,49 %
31.12.2015 12:48 10,1 C 12,8 C 7,2 C 82 % 0 lf 1019,7 hPa 0,0 l/m 0 min 0 min 130 W/m 29,3 km/h (5 Bft) 95,74 %
31.12.2015 12:50 10,2 C 12,8 C 7,2 C 81 % 0 lf 1019,7 hPa 0,0 l/m 2 min 0 min 217 W/m 27,2 km/h (4 Bft) 93,62 %
31.12.2015 12:52 10,2 C 12,2 C 7,2 C 81 % 0 lf 1019,7 hPa 0,0 l/m 0 min 0 min 122 W/m 20,9 km/h (4 Bft) 95,74 %
31.12.2015 12:54 10,2 C 12,2 C 7,2 C 81 % 0 lf 1019,8 hPa 0,0 l/m 0 min 0 min 130 W/m 16,7 km/h (3 Bft) 91,49 %
31.12.2015 12:56 10,2 C 12,2 C 7,2 C 81 % 0 lf 1019,8 hPa 0,0 l/m 2 min 0 min 232 W/m 35,6 km/h (5 Bft) 93,48 %
31.12.2015 12:58 10,2 C 12,8 C 7,2 C 81 % 0 lf 1019,8 hPa 0,0 l/m 2 min 0 min 233 W/m 35,6 km/h (5 Bft) 97,87 %
31.12.2015 13:00 10,2 C 12,8 C 7,2 C 81 % 0 lf 1019,8 hPa 0,0 l/m 2 min 0 min 216 W/m 35,6 km/h (5 Bft) 97,87 %
31.12.2015 13:02 10,2 C 12,2 C 7,2 C 80 % 0 lf 1019,8 hPa 0,0 l/m 2 min 0 min 181 W/m 33,5 km/h (5 Bft) 95,74 %
31.12.2015 13:04 10,2 C 12,8 C 7,2 C 80 % 0 lf 1019,8 hPa 0,0 l/m 2 min 0 min 156 W/m 41,8 km/h (6 Bft) 95,74 %
31.12.2015 13:06 10,2 C 13,3 C 7,2 C 80 % 0 lf 1019,8 hPa 0,0 l/m 2 min 0 min 226 W/m 31,4 km/h (5 Bft) 97,87 %
31.12.2015 13:08 10,2 C 14,4 C 7,2 C 80 % 0 lf 1019,8 hPa 0,0 l/m 2 min 0 min 223 W/m 20,9 km/h (4 Bft) 95,65 %
31.12.2015 13:10 10,2 C 13,9 C 7,2 C 80 % 0 lf 1019,8 hPa 0,0 l/m 2 min 0 min 220 W/m 35,6 km/h (5 Bft) 95,74 %
31.12.2015 13:12 10,3 C 14,4 C 7,2 C 80 % 0 lf 1019,9 hPa 0,0 l/m 2 min 0 min 187 W/m 20,9 km/h (4 Bft) 95,74 %
31.12.2015 13:14 10,3 C 13,9 C 7,2 C 80 % 0 lf 1019,9 hPa 0,0 l/m 2 min 0 min 215 W/m 33,5 km/h (5 Bft) 97,87 %
31.12.2015 13:16 10,3 C 13,9 C 7,2 C 80 % 0 lf 1019,9 hPa 0,0 l/m 2 min 0 min 211 W/m 31,4 km/h (5 Bft) 95,74 %
31.12.2015 13:18 10,3 C 14,4 C 7,2 C 80 % 0 lf 1020,0 hPa 0,0 l/m 2 min 0 min 210 W/m 33,5 km/h (5 Bft) 93,62 %
31.12.2015 13:20 10,3 C 14,4 C 7,2 C 79 % 0 lf 1019,9 hPa 0,0 l/m 2 min 0 min 210 W/m 25,1 km/h (4 Bft) 95,65 %
31.12.2015 13:22 10,3 C 15,0 C 7,2 C 79 % 0 lf 1019,9 hPa 0,0 l/m 2 min 0 min 213 W/m 27,2 km/h (4 Bft) 97,87 %
31.12.2015 13:24 10,4 C 13,9 C 7,2 C 79 % 0 lf 1020,0 hPa 0,0 l/m 2 min 0 min 185 W/m 27,2 km/h (4 Bft) 97,87 %
31.12.2015 13:26 10,4 C 13,9 C 7,2 C 79 % 0 lf 1020,0 hPa 0,0 l/m 2 min 0 min 200 W/m 33,5 km/h (5 Bft) 97,87 %
31.12.2015 13:28 10,4 C 13,9 C 7,2 C 78 % 0 lf 1020,1 hPa 0,0 l/m 2 min 0 min 205 W/m 33,5 km/h (5 Bft) 97,87 %
31.12.2015 13:30 10,4 C 14,4 C 7,8 C 78 % 0 lf 1020,1 hPa 0,0 l/m 2 min 0 min 200 W/m 29,3 km/h (5 Bft) 93,62 %
31.12.2015 13:32 10,4 C 15,0 C 7,8 C 78 % 0 lf 1020,1 hPa 0,0 l/m 2 min 0 min 200 W/m 20,9 km/h (4 Bft) 95,65 %
31.12.2015 13:34 10,4 C 14,4 C 7,8 C 78 % 0 lf 1020,1 hPa 0,0 l/m 2 min 0 min 199 W/m 25,1 km/h (4 Bft) 95,74 %
31.12.2015 13:36 10,4 C 15,0 C 7,8 C 78 % 0 lf 1020,1 hPa 0,0 l/m 2 min 0 min 197 W/m 27,2 km/h (4 Bft) 97,87 %
31.12.2015 13:38 10,5 C 15,6 C 7,8 C 78 % 0 lf 1020,1 hPa 0,0 l/m 2 min 0 min 194 W/m 27,2 km/h (4 Bft) 97,87 %
31.12.2015 13:40 10,5 C 15,6 C 7,8 C 78 % 0 lf 1020,1 hPa 0,0 l/m 2 min 0 min 188 W/m 39,7 km/h (6 Bft) 97,87 %
31.12.2015 13:42 10,5 C 15,6 C 7,8 C 78 % 0 lf 1020,1 hPa 0,0 l/m 2 min 0 min 185 W/m 23,0 km/h (4 Bft) 97,87 %
31.12.2015 13:44 10,6 C 15,6 C 7,8 C 78 % 0 lf 1020,1 hPa 0,0 l/m 2 min 0 min 185 W/m 23,0 km/h (4 Bft) 97,83 %
31.12.2015 13:46 10,6 C 15,6 C 7,8 C 78 % 0 lf 1020,1 hPa 0,0 l/m 2 min 0 min 185 W/m 27,2 km/h (4 Bft) 91,49 %
31.12.2015 13:48 10,6 C 16,1 C 7,8 C 78 % 0 lf 1020,2 hPa 0,0 l/m 2 min 0 min 182 W/m 25,1 km/h (4 Bft) 95,74 %
31.12.2015 13:50 10,6 C 16,1 C 8,3 C 78 % 0 lf 1020,2 hPa 0,0 l/m 2 min 0 min 191 W/m 25,1 km/h (4 Bft) 97,87 %
31.12.2015 13:52 10,6 C 16,1 C 8,3 C 78 % 0 lf 1020,1 hPa 0,0 l/m 2 min 0 min 200 W/m 31,4 km/h (5 Bft) 95,74 %
31.12.2015 13:54 10,6 C 15,6 C 8,9 C 76 % 0 lf 1020,1 hPa 0,0 l/m 2 min 0 min 197 W/m 39,7 km/h (6 Bft) 100,00 %
31.12.2015 13:56 10,6 C 15,0 C 8,9 C 76 % 0 lf 1020,1 hPa 0,0 l/m 2 min 0 min 194 W/m 43,9 km/h (6 Bft) 95,74 %
31.12.2015 13:58 10,6 C 15,6 C 8,9 C 76 % 0 lf 1020,1 hPa 0,0 l/m 2 min 0 min 193 W/m 29,3 km/h (5 Bft) 97,87 %
31.12.2015 14:00 10,6 C 15,6 C 8,9 C 76 % 0 lf 1020,1 hPa 0,0 l/m 2 min 0 min 189 W/m 18,8 km/h (3 Bft) 97,87 %
31.12.2015 14:02 10,6 C 16,1 C 8,9 C 76 % 0 lf 1020,0 hPa 0,0 l/m 2 min 0 min 189 W/m 29,3 km/h (5 Bft) 97,87 %
31.12.2015 14:04 10,6 C 15,6 C 8,9 C 75 % 0 lf 1020,1 hPa 0,0 l/m 2 min 0 min 188 W/m 37,7 km/h (5 Bft) 97,87 %
31.12.2015 14:06 10,6 C 15,6 C 8,9 C 75 % 0 lf 1020,1 hPa 0,0 l/m 2 min 0 min 186 W/m 29,3 km/h (5 Bft) 97,87 %
31.12.2015 14:08 10,6 C 16,1 C 8,9 C 76 % 0 lf 1020,2 hPa 0,0 l/m 2 min 0 min 185 W/m 23,0 km/h (4 Bft) 97,83 %
31.12.2015 14:10 10,6 C 16,1 C 8,9 C 76 % 0 lf 1020,2 hPa 0,0 l/m 2 min 0 min 182 W/m 23,0 km/h (4 Bft) 95,74 %
31.12.2015 14:12 10,6 C 15,0 C 8,9 C 76 % 0 lf 1020,2 hPa 0,0 l/m 2 min 0 min 182 W/m 29,3 km/h (5 Bft) 97,87 %
31.12.2015 14:14 10,6 C 15,0 C 8,9 C 76 % 0 lf 1020,2 hPa 0,0 l/m 2 min 0 min 179 W/m 25,1 km/h (4 Bft) 95,74 %
31.12.2015 14:16 10,6 C 15,6 C 8,9 C 76 % 0 lf 1020,2 hPa 0,0 l/m 2 min 0 min 175 W/m 23,0 km/h (4 Bft) 95,74 %
31.12.2015 14:18 10,6 C 15,6 C 8,9 C 76 % 0 lf 1020,2 hPa 0,0 l/m 2 min 0 min 172 W/m 25,1 km/h (4 Bft) 95,65 %
31.12.2015 14:20 10,6 C 15,0 C 8,9 C 76 % 0 lf 1020,2 hPa 0,0 l/m 2 min 0 min 169 W/m 20,9 km/h (4 Bft) 95,74 %
31.12.2015 14:22 10,6 C 15,0 C 8,9 C 76 % 0 lf 1020,3 hPa 0,0 l/m 2 min 0 min 165 W/m 23,0 km/h (4 Bft) 95,74 %
31.12.2015 14:24 10,6 C 15,0 C 8,9 C 76 % 0 lf 1020,3 hPa 0,0 l/m 2 min 0 min 161 W/m 31,4 km/h (5 Bft) 95,74 %
31.12.2015 14:26 10,6 C 13,9 C 8,9 C 76 % 0 lf 1020,3 hPa 0,0 l/m 2 min 0 min 163 W/m 25,1 km/h (4 Bft) 91,49 %
31.12.2015 14:28 10,6 C 12,8 C 8,9 C 76 % 0 lf 1020,3 hPa 0,0 l/m 2 min 0 min 167 W/m 20,9 km/h (4 Bft) 95,74 %
31.12.2015 14:30 10,6 C 12,2 C 8,9 C 76 % 0 lf 1020,4 hPa 0,0 l/m 2 min 0 min 163 W/m 18,8 km/h (3 Bft) 93,48 %
31.12.2015 14:32 10,6 C 11,7 C 8,9 C 76 % 0 lf 1020,4 hPa 0,0 l/m 2 min 0 min 161 W/m 18,8 km/h (3 Bft) 95,74 %
31.12.2015 14:34 10,6 C 11,7 C 8,9 C 76 % 0 lf 1020,4 hPa 0,0 l/m 2 min 0 min 157 W/m 20,9 km/h (4 Bft) 100,00 %
31.12.2015 14:36 10,6 C 11,1 C 8,3 C 76 % 0 lf 1020,5 hPa 0,0 l/m 2 min 0 min 155 W/m 25,1 km/h (4 Bft) 97,87 %
31.12.2015 14:38 10,5 C 11,1 C 8,3 C 76 % 0 lf 1020,5 hPa 0,0 l/m 2 min 0 min 154 W/m 18,8 km/h (3 Bft) 93,62 %
31.12.2015 14:40 10,5 C 11,1 C 8,3 C 76 % 0 lf 1020,5 hPa 0,0 l/m 2 min 0 min 150 W/m 31,4 km/h (5 Bft) 95,74 %
31.12.2015 14:42 10,4 C 11,1 C 8,3 C 76 % 0 lf 1020,5 hPa 0,0 l/m 2 min 0 min 148 W/m 25,1 km/h (4 Bft) 97,83 %
31.12.2015 14:44 10,4 C 11,1 C 8,3 C 76 % 0 lf 1020,7 hPa 0,0 l/m 2 min 0 min 145 W/m 29,3 km/h (5 Bft) 91,49 %
31.12.2015 14:46 10,4 C 11,1 C 8,3 C 76 % 0 lf 1020,6 hPa 0,0 l/m 2 min 0 min 141 W/m 16,7 km/h (3 Bft) 95,74 %
31.12.2015 14:48 10,4 C 11,1 C 8,3 C 76 % 0 lf 1020,5 hPa 0,0 l/m 2 min 0 min 139 W/m 23,0 km/h (4 Bft) 95,74 %
31.12.2015 14:50 10,4 C 10,6 C 8,3 C 76 % 0 lf 1020,6 hPa 0,0 l/m 2 min 0 min 137 W/m 23,0 km/h (4 Bft) 97,87 %
31.12.2015 14:52 10,3 C 10,6 C 8,3 C 76 % 0 lf 1020,6 hPa 0,0 l/m 2 min 0 min 134 W/m 16,7 km/h (3 Bft) 95,74 %
31.12.2015 14:54 10,3 C 10,6 C 8,3 C 76 % 0 lf 1020,5 hPa 0,0 l/m 2 min 0 min 132 W/m 20,9 km/h (4 Bft) 97,83 %
31.12.2015 14:56 10,3 C 10,6 C 8,3 C 76 % 0 lf 1020,5 hPa 0,0 l/m 2 min 0 min 128 W/m 23,0 km/h (4 Bft) 91,49 %
31.12.2015 14:58 10,3 C 10,6 C 8,3 C 76 % 0 lf 1020,6 hPa 0,0 l/m 2 min 0 min 127 W/m 20,9 km/h (4 Bft) 95,74 %
31.12.2015 15:00 10,3 C 10,6 C 8,3 C 76 % 0 lf 1020,7 hPa 0,0 l/m 2 min 0 min 124 W/m 23,0 km/h (4 Bft) 87,23 %
31.12.2015 15:02 10,2 C 10,6 C 8,3 C 76 % 0 lf 1020,7 hPa 0,0 l/m 2 min 0 min 120 W/m 14,6 km/h (3 Bft) 93,62 %
31.12.2015 15:04 10,2 C 10,6 C 8,3 C 76 % 0 lf 1020,7 hPa 0,0 l/m 2 min 0 min 118 W/m 16,7 km/h (3 Bft) 93,62 %
31.12.2015 15:06 10,2 C 10,6 C 8,3 C 76 % 0 lf 1020,8 hPa 0,0 l/m 2 min 0 min 115 W/m 29,3 km/h (5 Bft) 93,48 %
31.12.2015 15:08 10,2 C 10,6 C 8,3 C 76 % 0 lf 1020,8 hPa 0,0 l/m 2 min 0 min 112 W/m 25,1 km/h (4 Bft) 93,62 %
31.12.2015 15:10 10,1 C 10,6 C 8,3 C 76 % 0 lf 1020,8 hPa 0,0 l/m 2 min 0 min 108 W/m 20,9 km/h (4 Bft) 95,74 %
31.12.2015 15:12 10,1 C 10,6 C 8,3 C 76 % 0 lf 1020,8 hPa 0,0 l/m 2 min 0 min 105 W/m 27,2 km/h (4 Bft) 95,74 %
31.12.2015 15:14 10,1 C 10,6 C 8,3 C 76 % 0 lf 1020,9 hPa 0,0 l/m 2 min 0 min 104 W/m 33,5 km/h (5 Bft) 95,74 %
31.12.2015 15:16 10,1 C 10,6 C 8,3 C 76 % 0 lf 1021,0 hPa 0,0 l/m 2 min 0 min 102 W/m 29,3 km/h (5 Bft) 95,65 %
31.12.2015 15:18 10,0 C 10,6 C 8,3 C 76 % 0 lf 1021,1 hPa 0,0 l/m 2 min 0 min 99 W/m 18,8 km/h (3 Bft) 95,74 %
31.12.2015 15:20 10,0 C 10,6 C 8,3 C 76 % 0 lf 1021,0 hPa 0,0 l/m 2 min 0 min 98 W/m 20,9 km/h (4 Bft) 95,74 %
31.12.2015 15:22 10,0 C 10,6 C 8,3 C 76 % 0 lf 1021,0 hPa 0,0 l/m 2 min 0 min 94 W/m 20,9 km/h (4 Bft) 95,74 %
31.12.2015 15:24 9,9 C 10,0 C 7,8 C 76 % 0 lf 1021,0 hPa 0,0 l/m 2 min 0 min 91 W/m 23,0 km/h (4 Bft) 93,62 %
31.12.2015 15:26 9,9 C 10,0 C 7,8 C 76 % 0 lf 1021,0 hPa 0,0 l/m 2 min 0 min 88 W/m 23,0 km/h (4 Bft) 95,74 %
31.12.2015 15:28 9,9 C 10,0 C 7,8 C 76 % 0 lf 1021,0 hPa 0,0 l/m 2 min 0 min 85 W/m 18,8 km/h (3 Bft) 95,65 %
31.12.2015 15:30 9,9 C 10,0 C 7,8 C 76 % 0 lf 1021,1 hPa 0,0 l/m 2 min 0 min 83 W/m 12,6 km/h (3 Bft) 97,87 %
31.12.2015 15:32 9,9 C 10,0 C 7,8 C 76 % 0 lf 1021,1 hPa 0,0 l/m 2 min 0 min 81 W/m 23,0 km/h (4 Bft) 97,87 %
31.12.2015 15:34 9,9 C 10,0 C 7,8 C 77 % 0 lf 1021,2 hPa 0,0 l/m 2 min 0 min 78 W/m 16,7 km/h (3 Bft) 93,62 %
31.12.2015 15:36 9,8 C 10,0 C 7,8 C 77 % 0 lf 1021,2 hPa 0,0 l/m 2 min 0 min 76 W/m 20,9 km/h (4 Bft) 97,87 %
31.12.2015 15:38 9,8 C 10,0 C 7,8 C 76 % 0 lf 1021,2 hPa 0,0 l/m 2 min 0 min 74 W/m 20,9 km/h (4 Bft) 97,87 %
31.12.2015 15:40 9,8 C 10,0 C 7,8 C 77 % 0 lf 1021,2 hPa 0,0 l/m 2 min 0 min 72 W/m 18,8 km/h (3 Bft) 98,00 %
31.12.2015 15:42 9,8 C 10,0 C 7,8 C 77 % 0 lf 1021,2 hPa 0,0 l/m 2 min 0 min 70 W/m 18,8 km/h (3 Bft) 97,83 %
31.12.2015 15:44 9,7 C 10,0 C 7,8 C 76 % 0 lf 1021,3 hPa 0,0 l/m 2 min 0 min 69 W/m 10,5 km/h (2 Bft) 95,74 %
31.12.2015 15:46 9,7 C 10,0 C 7,8 C 76 % 0 lf 1021,2 hPa 0,0 l/m 2 min 0 min 67 W/m 18,8 km/h (3 Bft) 100,00 %
31.12.2015 15:48 9,7 C 10,0 C 7,8 C 76 % 0 lf 1021,3 hPa 0,0 l/m 2 min 0 min 58 W/m 14,6 km/h (3 Bft) 100,00 %
31.12.2015 15:50 9,7 C 9,4 C 7,8 C 76 % 0 lf 1021,3 hPa 0,0 l/m 2 min 0 min 50 W/m 20,9 km/h (4 Bft) 97,83 %
31.12.2015 15:52 9,7 C 9,4 C 7,8 C 76 % 0 lf 1021,3 hPa 0,0 l/m 2 min 0 min 56 W/m 18,8 km/h (3 Bft) 97,87 %
31.12.2015 15:54 9,6 C 9,4 C 7,8 C 76 % 0 lf 1021,4 hPa 0,0 l/m 2 min 0 min 56 W/m 20,9 km/h (4 Bft) 97,87 %
31.12.2015 15:56 9,6 C 9,4 C 7,8 C 76 % 0 lf 1021,3 hPa 0,0 l/m 2 min 0 min 52 W/m 14,6 km/h (3 Bft) 100,00 %
31.12.2015 15:58 9,6 C 9,4 C 7,2 C 76 % 0 lf 1021,4 hPa 0,0 l/m 2 min 0 min 49 W/m 14,6 km/h (3 Bft) 100,00 %
31.12.2015 16:00 9,5 C 9,4 C 7,2 C 76 % 0 lf 1021,4 hPa 0,0 l/m 2 min 0 min 45 W/m 16,7 km/h (3 Bft) 100,00 %
31.12.2015 16:02 9,5 C 9,4 C 7,2 C 76 % 0 lf 1021,4 hPa 0,0 l/m 2 min 0 min 37 W/m 14,6 km/h (3 Bft) 95,65 %
31.12.2015 16:04 9,5 C 9,4 C 7,2 C 76 % 0 lf 1021,4 hPa 0,0 l/m 2 min 0 min 35 W/m 14,6 km/h (3 Bft) 95,74 %
31.12.2015 16:06 9,4 C 9,4 C 7,2 C 76 % 0 lf 1021,5 hPa 0,0 l/m 2 min 0 min 35 W/m 14,6 km/h (3 Bft) 97,87 %
31.12.2015 16:08 9,4 C 9,4 C 7,2 C 76 % 0 lf 1021,5 hPa 0,0 l/m 2 min 0 min 36 W/m 20,9 km/h (4 Bft) 97,87 %
31.12.2015 16:10 9,4 C 9,4 C 7,2 C 76 % 0 lf 1021,5 hPa 0,0 l/m 2 min 0 min 36 W/m 14,6 km/h (3 Bft) 97,87 %
31.12.2015 16:12 9,4 C 9,4 C 7,2 C 76 % 0 lf 1021,5 hPa 0,0 l/m 2 min 0 min 35 W/m 12,6 km/h (3 Bft) 100,00 %
31.12.2015 16:14 9,4 C 8,9 C 7,2 C 76 % 0 lf 1021,5 hPa 0,0 l/m 2 min 0 min 39 W/m 16,7 km/h (3 Bft) 97,83 %
31.12.2015 16:16 9,3 C 9,4 C 7,2 C 76 % 0 lf 1021,5 hPa 0,0 l/m 2 min 0 min 47 W/m 16,7 km/h (3 Bft) 100,00 %
31.12.2015 16:18 9,3 C 9,4 C 7,2 C 76 % 0 lf 1021,6 hPa 0,0 l/m 2 min 0 min 45 W/m 14,6 km/h (3 Bft) 97,87 %
31.12.2015 16:20 9,3 C 9,4 C 7,2 C 76 % 0 lf 1021,6 hPa 0,0 l/m 2 min 0 min 43 W/m 18,8 km/h (3 Bft) 97,87 %
31.12.2015 16:22 9,3 C 8,9 C 7,2 C 76 % 0 lf 1021,6 hPa 0,0 l/m 0 min 0 min 40 W/m 12,6 km/h (3 Bft) 95,74 %
31.12.2015 16:24 9,2 C 8,9 C 7,2 C 76 % 0 lf 1021,7 hPa 0,0 l/m 0 min 0 min 39 W/m 14,6 km/h (3 Bft) 100,00 %
31.12.2015 16:26 9,2 C 8,9 C 6,7 C 76 % 0 lf 1021,7 hPa 0,0 l/m 0 min 0 min 38 W/m 10,5 km/h (2 Bft) 97,83 %
31.12.2015 16:28 9,2 C 8,9 C 6,7 C 76 % 0 lf 1021,7 hPa 0,0 l/m 0 min 0 min 37 W/m 14,6 km/h (3 Bft) 100,00 %
31.12.2015 16:30 9,2 C 8,9 C 6,7 C 76 % 0 lf 1021,7 hPa 0,0 l/m 0 min 0 min 35 W/m 14,6 km/h (3 Bft) 97,87 %
31.12.2015 16:32 9,1 C 8,3 C 6,7 C 76 % 0 lf 1021,7 hPa 0,0 l/m 0 min 0 min 35 W/m 10,5 km/h (2 Bft) 97,87 %
31.12.2015 16:34 9,1 C 8,9 C 6,7 C 77 % 0 lf 1021,7 hPa 0,0 l/m 0 min 0 min 33 W/m 12,6 km/h (3 Bft) 100,00 %
31.12.2015 16:36 9,1 C 8,3 C 6,7 C 77 % 0 lf 1021,8 hPa 0,0 l/m 0 min 0 min 33 W/m 8,4 km/h (2 Bft) 97,87 %
31.12.2015 16:38 9,0 C 8,3 C 6,7 C 77 % 0 lf 1021,7 hPa 0,0 l/m 0 min 0 min 32 W/m 12,6 km/h (3 Bft) 95,65 %
31.12.2015 16:40 9,0 C 8,3 C 6,7 C 77 % 0 lf 1021,8 hPa 0,0 l/m 0 min 0 min 32 W/m 18,8 km/h (3 Bft) 100,00 %
31.12.2015 16:42 8,9 C 8,3 C 6,7 C 77 % 0 lf 1021,9 hPa 0,0 l/m 0 min 0 min 30 W/m 12,6 km/h (3 Bft) 95,74 %
31.12.2015 16:44 8,9 C 8,3 C 6,7 C 77 % 0 lf 1021,8 hPa 0,0 l/m 0 min 0 min 29 W/m 12,6 km/h (3 Bft) 95,74 %
31.12.2015 16:46 8,9 C 8,3 C 6,7 C 77 % 0 lf 1021,9 hPa 0,0 l/m 0 min 0 min 28 W/m 12,6 km/h (3 Bft) 95,74 %
31.12.2015 16:48 8,8 C 8,3 C 6,7 C 77 % 0 lf 1021,9 hPa 0,0 l/m 0 min 0 min 27 W/m 12,6 km/h (3 Bft) 95,65 %
31.12.2015 16:50 8,8 C 8,3 C 6,7 C 77 % 0 lf 1021,8 hPa 0,0 l/m 0 min 0 min 26 W/m 10,5 km/h (2 Bft) 95,65 %
31.12.2015 16:52 8,8 C 8,3 C 6,1 C 77 % 0 lf 1021,9 hPa 0,0 l/m 0 min 0 min 25 W/m 12,6 km/h (3 Bft) 93,62 %
31.12.2015 16:54 8,7 C 8,3 C 6,1 C 77 % 0 lf 1021,9 hPa 0,0 l/m 0 min 0 min 25 W/m 10,5 km/h (2 Bft) 93,62 %
31.12.2015 16:56 8,7 C 7,8 C 6,1 C 77 % 0 lf 1021,9 hPa 0,0 l/m 0 min 0 min 23 W/m 8,4 km/h (2 Bft) 91,49 %
31.12.2015 16:58 8,7 C 7,8 C 6,1 C 78 % 0 lf 1022,0 hPa 0,0 l/m 0 min 0 min 22 W/m 6,3 km/h (2 Bft) 95,74 %
31.12.2015 17:00 8,7 C 7,8 C 6,1 C 78 % 0 lf 1021,9 hPa 0,0 l/m 0 min 0 min 21 W/m 10,5 km/h (2 Bft) 89,13 %
31.12.2015 17:02 8,7 C 7,8 C 6,1 C 78 % 0 lf 1021,9 hPa 0,0 l/m 0 min 0 min 21 W/m 8,4 km/h (2 Bft) 93,62 %
31.12.2015 17:04 8,6 C 7,8 C 6,1 C 78 % 0 lf 1021,9 hPa 0,0 l/m 0 min 0 min 21 W/m 10,5 km/h (2 Bft) 91,49 %
31.12.2015 17:06 8,5 C 7,8 C 6,1 C 78 % 0 lf 1021,9 hPa 0,0 l/m 0 min 0 min 21 W/m 16,7 km/h (3 Bft) 95,74 %
31.12.2015 17:08 8,4 C 7,8 C 6,1 C 78 % 0 lf 1021,9 hPa 0,0 l/m 0 min 0 min 21 W/m 12,6 km/h (3 Bft) 93,62 %
31.12.2015 17:10 8,4 C 7,8 C 6,1 C 78 % 0 lf 1021,9 hPa 0,0 l/m 0 min 0 min 21 W/m 10,5 km/h (2 Bft) 93,62 %
31.12.2015 17:12 8,4 C 7,8 C 6,1 C 78 % 0 lf 1021,9 hPa 0,0 l/m 0 min 0 min 21 W/m 10,5 km/h (2 Bft) 89,13 %
31.12.2015 17:14 8,3 C 7,8 C 6,1 C 78 % 0 lf 1021,9 hPa 0,0 l/m 0 min 0 min 21 W/m 12,6 km/h (3 Bft) 93,62 %
31.12.2015 17:16 8,3 C 7,8 C 5,6 C 78 % 0 lf 1021,9 hPa 0,0 l/m 0 min 0 min 21 W/m 12,6 km/h (3 Bft) 93,62 %
31.12.2015 17:18 8,2 C 7,2 C 5,6 C 79 % 0 lf 1021,9 hPa 0,0 l/m 0 min 0 min 21 W/m 12,6 km/h (3 Bft) 87,23 %
31.12.2015 17:20 8,2 C 7,2 C 5,6 C 79 % 0 lf 1022,0 hPa 0,0 l/m 0 min 0 min 21 W/m 8,4 km/h (2 Bft) 93,62 %
31.12.2015 17:22 8,2 C 7,2 C 5,6 C 79 % 0 lf 1022,0 hPa 0,0 l/m 0 min 0 min 21 W/m 8,4 km/h (2 Bft) 93,62 %
31.12.2015 17:24 8,2 C 7,2 C 5,6 C 79 % 0 lf 1022,0 hPa 0,0 l/m 0 min 0 min 22 W/m 10,5 km/h (2 Bft) 93,48 %
31.12.2015 17:26 8,1 C 7,2 C 5,0 C 79 % 0 lf 1022,0 hPa 0,0 l/m 0 min 0 min 8 W/m 6,3 km/h (2 Bft) 95,74 %
31.12.2015 17:28 8,1 C 7,2 C 5,0 C 79 % 0 lf 1022,0 hPa 0,0 l/m 0 min 0 min 5 W/m 6,3 km/h (2 Bft) 91,49 %
31.12.2015 17:30 8,1 C 7,2 C 5,0 C 79 % 0 lf 1022,1 hPa 0,0 l/m 0 min 0 min 5 W/m 6,3 km/h (2 Bft) 95,74 %
31.12.2015 17:32 8,1 C 7,2 C 4,4 C 79 % 0 lf 1022,0 hPa 0,0 l/m 0 min 0 min 6 W/m 8,4 km/h (2 Bft) 95,74 %
31.12.2015 17:34 8,0 C 7,2 C 4,4 C 79 % 0 lf 1022,0 hPa 0,0 l/m 0 min 0 min 8 W/m 8,4 km/h (2 Bft) 93,62 %
31.12.2015 17:36 8,0 C 7,2 C 4,4 C 80 % 0 lf 1022,0 hPa 0,0 l/m 0 min 0 min 12 W/m 6,3 km/h (2 Bft) 95,65 %
31.12.2015 17:38 7,9 C 7,2 C 4,4 C 80 % 0 lf 1022,0 hPa 0,0 l/m 0 min 0 min 14 W/m 6,3 km/h (2 Bft) 97,87 %
31.12.2015 17:40 7,9 C 7,2 C 4,4 C 80 % 0 lf 1022,0 hPa 0,0 l/m 0 min 0 min 18 W/m 12,6 km/h (3 Bft) 97,87 %
31.12.2015 17:42 7,9 C 7,2 C 4,4 C 80 % 0 lf 1022,0 hPa 0,0 l/m 0 min 0 min 13 W/m 10,5 km/h (2 Bft) 95,74 %
31.12.2015 17:44 7,8 C 7,2 C 4,4 C 80 % 0 lf 1022,1 hPa 0,0 l/m 0 min 0 min 10 W/m 10,5 km/h (2 Bft) 97,87 %
31.12.2015 17:46 7,8 C 7,2 C 4,4 C 80 % 0 lf 1022,1 hPa 0,0 l/m 0 min 0 min 9 W/m 8,4 km/h (2 Bft) 95,74 %
31.12.2015 17:48 7,8 C 7,2 C 4,4 C 80 % 0 lf 1022,1 hPa 0,0 l/m 0 min 0 min 8 W/m 8,4 km/h (2 Bft) 100,00 %
31.12.2015 17:50 7,7 C 7,2 C 4,4 C 81 % 0 lf 1022,1 hPa 0,0 l/m 0 min 0 min 8 W/m 8,4 km/h (2 Bft) 95,74 %
31.12.2015 17:52 7,7 C 7,2 C 4,4 C 81 % 0 lf 1022,2 hPa 0,0 l/m 0 min 0 min 8 W/m 8,4 km/h (2 Bft) 97,87 %
31.12.2015 17:54 7,6 C 6,7 C 4,4 C 81 % 0 lf 1022,2 hPa 0,0 l/m 0 min 0 min 8 W/m 6,3 km/h (2 Bft) 97,87 %
31.12.2015 17:56 7,6 C 7,2 C 4,4 C 81 % 0 lf 1022,2 hPa 0,0 l/m 0 min 0 min 8 W/m 10,5 km/h (2 Bft) 97,87 %
31.12.2015 17:58 7,6 C 7,2 C 4,4 C 81 % 0 lf 1022,2 hPa 0,0 l/m 0 min 0 min 8 W/m 8,4 km/h (2 Bft) 97,87 %
31.12.2015 18:00 7,5 C 7,2 C 4,4 C 81 % 0 lf 1022,2 hPa 0,0 l/m 0 min 0 min 7 W/m 10,5 km/h (2 Bft) 100,00 %
31.12.2015 18:02 7,5 C 7,2 C 4,4 C 82 % 0 lf 1022,2 hPa 0,0 l/m 0 min 0 min 6 W/m 8,4 km/h (2 Bft) 95,74 %
31.12.2015 18:06 7,4 C 7,2 C 4,4 C 82 % 0 lf 1022,1 hPa 0,0 l/m 0 min 0 min 6 W/m 8,4 km/h (2 Bft) 97,87 %
31.12.2015 18:08 7,4 C 6,7 C 4,4 C 82 % 0 lf 1022,1 hPa 0,0 l/m 0 min 0 min 6 W/m 8,4 km/h (2 Bft) 93,62 %
31.12.2015 18:10 7,3 C 6,7 C 4,4 C 82 % 0 lf 1022,1 hPa 0,0 l/m 0 min 0 min 6 W/m 8,4 km/h (2 Bft) 100,00 %
31.12.2015 18:12 7,3 C 6,7 C 4,4 C 82 % 0 lf 1022,1 hPa 0,0 l/m 0 min 0 min 6 W/m 6,3 km/h (2 Bft) 100,00 %
31.12.2015 18:14 7,3 C 6,7 C 4,4 C 82 % 0 lf 1022,2 hPa 0,0 l/m 0 min 0 min 6 W/m 12,6 km/h (3 Bft) 100,00 %
31.12.2015 18:16 7,2 C 6,7 C 4,4 C 83 % 0 lf 1022,2 hPa 0,0 l/m 0 min 0 min 6 W/m 8,4 km/h (2 Bft) 100,00 %
31.12.2015 18:18 7,2 C 6,7 C 4,4 C 83 % 0 lf 1022,2 hPa 0,0 l/m 0 min 0 min 6 W/m 10,5 km/h (2 Bft) 97,87 %
31.12.2015 18:20 7,2 C 6,7 C 4,4 C 83 % 0 lf 1022,4 hPa 0,0 l/m 0 min 0 min 6 W/m 10,5 km/h (2 Bft) 100,00 %
31.12.2015 18:22 7,2 C 6,7 C 4,4 C 83 % 0 lf 1022,3 hPa 0,0 l/m 0 min 0 min 6 W/m 6,3 km/h (2 Bft) 100,00 %
31.12.2015 18:24 7,1 C 6,7 C 4,4 C 83 % 0 lf 1022,2 hPa 0,0 l/m 0 min 0 min 6 W/m 10,5 km/h (2 Bft) 97,87 %
31.12.2015 18:26 7,1 C 6,7 C 4,4 C 83 % 0 lf 1022,2 hPa 0,0 l/m 0 min 0 min 6 W/m 8,4 km/h (2 Bft) 97,87 %
31.12.2015 18:28 7,1 C 6,7 C 4,4 C 83 % 0 lf 1022,3 hPa 0,0 l/m 0 min 0 min 6 W/m 6,3 km/h (2 Bft) 100,00 %
31.12.2015 18:30 7,1 C 6,7 C 4,4 C 84 % 0 lf 1022,4 hPa 0,0 l/m 0 min 0 min 6 W/m 10,5 km/h (2 Bft) 100,00 %
31.12.2015 18:32 7,0 C 6,7 C 4,4 C 84 % 0 lf 1022,3 hPa 0,0 l/m 0 min 0 min 6 W/m 10,5 km/h (2 Bft) 100,00 %
31.12.2015 18:34 7,0 C 6,7 C 4,4 C 84 % 0 lf 1022,3 hPa 0,0 l/m 0 min 0 min 6 W/m 10,5 km/h (2 Bft) 95,65 %
31.12.2015 18:36 6,9 C 6,7 C 4,4 C 84 % 0 lf 1022,2 hPa 0,0 l/m 0 min 0 min 6 W/m 12,6 km/h (3 Bft) 95,74 %
31.12.2015 18:38 6,9 C 6,7 C 4,4 C 84 % 0 lf 1022,1 hPa 0,0 l/m 0 min 0 min 6 W/m 8,4 km/h (2 Bft) 97,87 %
31.12.2015 18:40 6,9 C 6,7 C 5,0 C 84 % 0 lf 1022,1 hPa 0,0 l/m 0 min 0 min 6 W/m 10,5 km/h (2 Bft) 97,87 %
31.12.2015 18:42 6,9 C 6,7 C 5,0 C 84 % 0 lf 1022,2 hPa 0,0 l/m 0 min 0 min 6 W/m 10,5 km/h (2 Bft) 95,74 %
31.12.2015 18:44 6,8 C 6,7 C 5,0 C 84 % 0 lf 1022,2 hPa 0,0 l/m 0 min 0 min 6 W/m 8,4 km/h (2 Bft) 95,74 %
31.12.2015 18:46 6,8 C 6,7 C 5,0 C 84 % 0 lf 1022,3 hPa 0,0 l/m 0 min 0 min 6 W/m 8,4 km/h (2 Bft) 93,48 %
31.12.2015 18:48 6,8 C 6,7 C 5,0 C 85 % 0 lf 1022,3 hPa 0,0 l/m 0 min 0 min 6 W/m 8,4 km/h (2 Bft) 95,74 %
31.12.2015 18:50 6,8 C 6,7 C 5,0 C 85 % 0 lf 1022,2 hPa 0,0 l/m 0 min 0 min 6 W/m 10,5 km/h (2 Bft) 95,74 %
31.12.2015 18:52 6,8 C 6,7 C 4,4 C 85 % 0 lf 1022,2 hPa 0,0 l/m 0 min 0 min 6 W/m 12,6 km/h (3 Bft) 95,74 %
31.12.2015 18:54 6,8 C 6,7 C 4,4 C 85 % 0 lf 1022,2 hPa 0,0 l/m 0 min 0 min 6 W/m 12,6 km/h (3 Bft) 97,87 %
31.12.2015 18:56 6,7 C 6,7 C 4,4 C 85 % 0 lf 1022,2 hPa 0,0 l/m 0 min 0 min 6 W/m 8,4 km/h (2 Bft) 95,74 %
31.12.2015 18:58 6,7 C 6,7 C 4,4 C 85 % 0 lf 1022,2 hPa 0,0 l/m 0 min 0 min 6 W/m 8,4 km/h (2 Bft) 95,65 %
31.12.2015 19:00 6,7 C 6,7 C 4,4 C 85 % 0 lf 1022,2 hPa 0,0 l/m 0 min 0 min 6 W/m 10,5 km/h (2 Bft) 95,74 %
31.12.2015 19:02 6,7 C 6,7 C 4,4 C 85 % 0 lf 1022,2 hPa 0,0 l/m 0 min 0 min 6 W/m 8,4 km/h (2 Bft) 91,43 %
31.12.2015 19:04 6,7 C 6,7 C 4,4 C 85 % 0 lf 1022,3 hPa 0,0 l/m 0 min 0 min 6 W/m 8,4 km/h (2 Bft) 93,62 %
31.12.2015 19:06 6,7 C 6,7 C 4,4 C 85 % 0 lf 1022,3 hPa 0,0 l/m 0 min 0 min 6 W/m 8,4 km/h (2 Bft) 89,36 %
31.12.2015 19:08 6,6 C 6,1 C 4,4 C 85 % 0 lf 1022,4 hPa 0,0 l/m 0 min 0 min 6 W/m 10,5 km/h (2 Bft) 95,74 %
31.12.2015 19:10 6,6 C 6,1 C 4,4 C 85 % 0 lf 1022,4 hPa 0,0 l/m 0 min 0 min 6 W/m 10,5 km/h (2 Bft) 95,74 %
31.12.2015 19:12 6,6 C 6,1 C 4,4 C 85 % 0 lf 1022,5 hPa 0,0 l/m 0 min 0 min 6 W/m 10,5 km/h (2 Bft) 93,48 %
31.12.2015 19:14 6,6 C 6,1 C 4,4 C 85 % 0 lf 1022,5 hPa 0,0 l/m 0 min 0 min 6 W/m 10,5 km/h (2 Bft) 95,74 %
31.12.2015 19:16 6,6 C 6,1 C 4,4 C 85 % 0 lf 1022,4 hPa 0,0 l/m 0 min 0 min 6 W/m 10,5 km/h (2 Bft) 93,62 %
31.12.2015 19:18 6,5 C 6,1 C 4,4 C 85 % 0 lf 1022,4 hPa 0,0 l/m 0 min 0 min 6 W/m 8,4 km/h (2 Bft) 95,74 %
31.12.2015 19:20 6,4 C 6,1 C 4,4 C 85 % 0 lf 1022,4 hPa 0,0 l/m 0 min 0 min 6 W/m 10,5 km/h (2 Bft) 97,87 %
31.12.2015 19:22 6,4 C 6,7 C 4,4 C 85 % 0 lf 1022,4 hPa 0,0 l/m 0 min 0 min 6 W/m 10,5 km/h (2 Bft) 91,49 %
31.12.2015 19:24 6,4 C 6,1 C 4,4 C 85 % 0 lf 1022,4 hPa 0,0 l/m 0 min 0 min 7 W/m 12,6 km/h (3 Bft) 95,65 %
31.12.2015 19:26 6,4 C 6,1 C 4,4 C 85 % 0 lf 1022,4 hPa 0,0 l/m 0 min 0 min 11 W/m 10,5 km/h (2 Bft) 91,49 %
31.12.2015 19:28 6,4 C 6,1 C 4,4 C 85 % 0 lf 1022,4 hPa 0,0 l/m 0 min 0 min 10 W/m 10,5 km/h (2 Bft) 95,74 %
31.12.2015 19:30 6,4 C 6,1 C 4,4 C 85 % 0 lf 1022,5 hPa 0,0 l/m 0 min 0 min 10 W/m 8,4 km/h (2 Bft) 95,74 %
31.12.2015 19:32 6,4 C 6,7 C 4,4 C 85 % 0 lf 1022,4 hPa 0,0 l/m 0 min 0 min 10 W/m 10,5 km/h (2 Bft) 97,87 %
31.12.2015 19:34 6,4 C 6,7 C 4,4 C 85 % 0 lf 1022,4 hPa 0,0 l/m 0 min 0 min 10 W/m 14,6 km/h (3 Bft) 91,49 %
31.12.2015 19:36 6,4 C 6,7 C 5,0 C 85 % 0 lf 1022,4 hPa 0,0 l/m 0 min 0 min 10 W/m 12,6 km/h (3 Bft) 97,83 %
31.12.2015 19:38 6,4 C 6,7 C 5,0 C 86 % 0 lf 1022,3 hPa 0,0 l/m 0 min 0 min 10 W/m 10,5 km/h (2 Bft) 95,74 %
31.12.2015 19:40 6,4 C 6,7 C 5,0 C 86 % 0 lf 1022,4 hPa 0,0 l/m 0 min 0 min 10 W/m 10,5 km/h (2 Bft) 95,74 %
31.12.2015 19:42 6,3 C 6,7 C 5,0 C 86 % 0 lf 1022,4 hPa 0,0 l/m 0 min 0 min 10 W/m 8,4 km/h (2 Bft) 95,74 %
31.12.2015 19:44 6,3 C 6,7 C 5,0 C 86 % 0 lf 1022,4 hPa 0,0 l/m 0 min 0 min 10 W/m 8,4 km/h (2 Bft) 95,74 %
31.12.2015 19:46 6,3 C 6,7 C 4,4 C 86 % 0 lf 1022,4 hPa 0,0 l/m 0 min 0 min 10 W/m 10,5 km/h (2 Bft) 89,36 %
31.12.2015 19:48 6,3 C 6,7 C 4,4 C 86 % 0 lf 1022,5 hPa 0,0 l/m 0 min 0 min 10 W/m 10,5 km/h (2 Bft) 95,65 %
31.12.2015 19:50 6,3 C 6,7 C 4,4 C 86 % 0 lf 1022,5 hPa 0,0 l/m 0 min 0 min 10 W/m 10,5 km/h (2 Bft) 97,87 %
31.12.2015 19:52 6,3 C 6,7 C 5,0 C 86 % 0 lf 1022,5 hPa 0,0 l/m 0 min 0 min 10 W/m 10,5 km/h (2 Bft) 97,87 %
31.12.2015 19:54 6,3 C 6,7 C 5,0 C 85 % 0 lf 1022,5 hPa 0,0 l/m 0 min 0 min 10 W/m 12,6 km/h (3 Bft) 97,87 %
31.12.2015 19:56 6,3 C 6,7 C 5,0 C 85 % 0 lf 1022,5 hPa 0,0 l/m 0 min 0 min 10 W/m 12,6 km/h (3 Bft) 91,49 %
31.12.2015 19:58 6,3 C 6,7 C 4,4 C 85 % 0 lf 1022,5 hPa 0,0 l/m 0 min 0 min 10 W/m 14,6 km/h (3 Bft) 89,36 %
31.12.2015 20:00 6,3 C 6,7 C 5,0 C 85 % 0 lf 1022,5 hPa 0,0 l/m 0 min 0 min 10 W/m 12,6 km/h (3 Bft) 97,83 %
31.12.2015 20:02 6,3 C 6,7 C 4,4 C 85 % 0 lf 1022,5 hPa 0,0 l/m 0 min 0 min 10 W/m 8,4 km/h (2 Bft) 95,74 %
31.12.2015 20:04 6,3 C 6,7 C 4,4 C 85 % 0 lf 1022,5 hPa 0,0 l/m 0 min 0 min 10 W/m 12,6 km/h (3 Bft) 95,74 %
31.12.2015 20:06 6,3 C 6,7 C 4,4 C 85 % 0 lf 1022,5 hPa 0,0 l/m 0 min 0 min 9 W/m 12,6 km/h (3 Bft) 95,74 %
31.12.2015 20:08 6,3 C 6,7 C 4,4 C 85 % 0 lf 1022,4 hPa 0,0 l/m 0 min 0 min 9 W/m 10,5 km/h (2 Bft) 91,49 %
31.12.2015 20:10 6,3 C 6,7 C 4,4 C 85 % 0 lf 1022,5 hPa 0,0 l/m 0 min 0 min 8 W/m 10,5 km/h (2 Bft) 95,65 %
31.12.2015 20:12 6,3 C 6,7 C 4,4 C 85 % 0 lf 1022,5 hPa 0,0 l/m 0 min 0 min 8 W/m 10,5 km/h (2 Bft) 97,87 %
31.12.2015 20:14 6,3 C 6,1 C 4,4 C 85 % 0 lf 1022,5 hPa 0,0 l/m 0 min 0 min 8 W/m 12,6 km/h (3 Bft) 95,74 %
31.12.2015 20:16 6,3 C 6,1 C 4,4 C 85 % 0 lf 1022,5 hPa 0,0 l/m 0 min 0 min 8 W/m 10,5 km/h (2 Bft) 93,62 %
31.12.2015 20:18 6,3 C 6,1 C 4,4 C 85 % 0 lf 1022,5 hPa 0,0 l/m 0 min 0 min 8 W/m 10,5 km/h (2 Bft) 95,74 %
31.12.2015 20:20 6,3 C 6,1 C 4,4 C 85 % 0 lf 1022,4 hPa 0,0 l/m 0 min 0 min 8 W/m 10,5 km/h (2 Bft) 97,87 %
31.12.2015 20:22 6,3 C 6,1 C 4,4 C 85 % 0 lf 1022,4 hPa 0,0 l/m 0 min 0 min 8 W/m 10,5 km/h (2 Bft) 97,83 %
31.12.2015 20:24 6,3 C 6,1 C 4,4 C 85 % 0 lf 1022,4 hPa 0,0 l/m 0 min 0 min 8 W/m 12,6 km/h (3 Bft) 97,87 %
31.12.2015 20:26 6,2 C 6,1 C 4,4 C 85 % 0 lf 1022,4 hPa 0,0 l/m 0 min 0 min 8 W/m 12,6 km/h (3 Bft) 97,87 %
31.12.2015 20:28 6,2 C 6,1 C 4,4 C 85 % 0 lf 1022,3 hPa 0,0 l/m 0 min 0 min 8 W/m 10,5 km/h (2 Bft) 95,74 %
31.12.2015 20:30 6,2 C 6,1 C 4,4 C 85 % 0 lf 1022,3 hPa 0,0 l/m 0 min 0 min 8 W/m 10,5 km/h (2 Bft) 95,74 %
31.12.2015 20:32 6,2 C 6,1 C 4,4 C 85 % 0 lf 1022,4 hPa 0,0 l/m 0 min 0 min 8 W/m 12,6 km/h (3 Bft) 97,87 %
31.12.2015 20:34 6,2 C 6,7 C 4,4 C 85 % 0 lf 1022,4 hPa 0,0 l/m 0 min 0 min 8 W/m 12,6 km/h (3 Bft) 95,65 %
31.12.2015 20:36 6,2 C 6,1 C 4,4 C 85 % 0 lf 1022,4 hPa 0,0 l/m 0 min 0 min 8 W/m 10,5 km/h (2 Bft) 95,74 %
31.12.2015 20:38 6,2 C 6,7 C 4,4 C 85 % 0 lf 1022,4 hPa 0,0 l/m 0 min 0 min 8 W/m 10,5 km/h (2 Bft) 97,87 %
31.12.2015 20:40 6,2 C 6,7 C 4,4 C 85 % 0 lf 1022,5 hPa 0,0 l/m 0 min 0 min 8 W/m 10,5 km/h (2 Bft) 89,36 %
31.12.2015 20:42 6,2 C 6,7 C 4,4 C 85 % 0 lf 1022,5 hPa 0,0 l/m 0 min 0 min 8 W/m 12,6 km/h (3 Bft) 95,74 %
31.12.2015 20:44 6,2 C 6,7 C 4,4 C 85 % 0 lf 1022,5 hPa 0,0 l/m 0 min 0 min 8 W/m 8,4 km/h (2 Bft) 95,74 %
31.12.2015 20:46 6,3 C 6,7 C 4,4 C 85 % 0 lf 1022,5 hPa 0,0 l/m 0 min 0 min 8 W/m 8,4 km/h (2 Bft) 95,65 %
31.12.2015 20:48 6,3 C 6,1 C 4,4 C 85 % 0 lf 1022,5 hPa 0,0 l/m 0 min 0 min 8 W/m 8,4 km/h (2 Bft) 97,87 %
31.12.2015 20:50 6,3 C 6,1 C 4,4 C 85 % 0 lf 1022,5 hPa 0,0 l/m 0 min 0 min 8 W/m 10,5 km/h (2 Bft) 97,87 %
31.12.2015 20:52 6,3 C 6,1 C 4,4 C 85 % 0 lf 1022,5 hPa 0,0 l/m 0 min 0 min 8 W/m 8,4 km/h (2 Bft) 97,87 %
31.12.2015 20:54 6,2 C 6,1 C 4,4 C 85 % 0 lf 1022,5 hPa 0,0 l/m 0 min 0 min 8 W/m 10,5 km/h (2 Bft) 95,74 %
31.12.2015 20:56 6,2 C 6,1 C 4,4 C 85 % 0 lf 1022,5 hPa 0,0 l/m 0 min 0 min 8 W/m 10,5 km/h (2 Bft) 91,49 %
31.12.2015 20:58 6,2 C 6,1 C 4,4 C 85 % 0 lf 1022,5 hPa 0,0 l/m 0 min 0 min 8 W/m 10,5 km/h (2 Bft) 97,83 %
31.12.2015 21:00 6,2 C 6,1 C 4,4 C 85 % 0 lf 1022,5 hPa 0,0 l/m 0 min 0 min 8 W/m 10,5 km/h (2 Bft) 95,74 %
31.12.2015 21:02 6,2 C 6,1 C 4,4 C 85 % 0 lf 1022,5 hPa 0,0 l/m 0 min 0 min 8 W/m 10,5 km/h (2 Bft) 95,74 %
31.12.2015 21:04 6,2 C 6,1 C 3,9 C 85 % 0 lf 1022,5 hPa 0,0 l/m 0 min 0 min 8 W/m 8,4 km/h (2 Bft) 93,62 %
31.12.2015 21:06 6,2 C 6,1 C 3,9 C 85 % 0 lf 1022,4 hPa 0,0 l/m 0 min 0 min 8 W/m 8,4 km/h (2 Bft) 97,87 %
31.12.2015 21:08 6,2 C 6,1 C 3,9 C 85 % 0 lf 1022,4 hPa 0,0 l/m 0 min 0 min 8 W/m 12,6 km/h (3 Bft) 95,74 %
31.12.2015 21:10 6,2 C 6,1 C 4,4 C 85 % 0 lf 1022,4 hPa 0,0 l/m 0 min 0 min 8 W/m 8,4 km/h (2 Bft) 97,83 %
31.12.2015 21:12 6,2 C 6,1 C 4,4 C 85 % 0 lf 1022,4 hPa 0,0 l/m 0 min 0 min 8 W/m 10,5 km/h (2 Bft) 100,00 %
31.12.2015 21:14 6,2 C 6,1 C 4,4 C 85 % 0 lf 1022,5 hPa 0,0 l/m 0 min 0 min 8 W/m 12,6 km/h (3 Bft) 100,00 %
31.12.2015 21:16 6,1 C 6,1 C 4,4 C 85 % 0 lf 1022,4 hPa 0,0 l/m 0 min 0 min 8 W/m 10,5 km/h (2 Bft) 97,87 %
31.12.2015 21:18 6,1 C 6,1 C 4,4 C 85 % 0 lf 1022,5 hPa 0,0 l/m 0 min 0 min 8 W/m 8,4 km/h (2 Bft) 100,00 %
31.12.2015 21:20 6,1 C 6,1 C 4,4 C 85 % 0 lf 1022,5 hPa 0,0 l/m 0 min 0 min 8 W/m 10,5 km/h (2 Bft) 100,00 %
31.12.2015 21:22 6,1 C 6,1 C 4,4 C 85 % 0 lf 1022,4 hPa 0,0 l/m 0 min 0 min 8 W/m 12,6 km/h (3 Bft) 97,87 %
31.12.2015 21:24 6,1 C 6,1 C 4,4 C 85 % 0 lf 1022,4 hPa 0,0 l/m 0 min 0 min 8 W/m 12,6 km/h (3 Bft) 100,00 %
31.12.2015 21:26 6,1 C 6,1 C 3,9 C 85 % 0 lf 1022,4 hPa 0,0 l/m 0 min 0 min 8 W/m 14,6 km/h (3 Bft) 95,74 %
31.12.2015 21:28 6,1 C 6,1 C 3,9 C 85 % 0 lf 1022,4 hPa 0,0 l/m 0 min 0 min 8 W/m 14,6 km/h (3 Bft) 100,00 %
31.12.2015 21:30 6,0 C 6,1 C 3,9 C 85 % 0 lf 1022,4 hPa 0,0 l/m 0 min 0 min 8 W/m 14,6 km/h (3 Bft) 100,00 %
31.12.2015 21:32 6,0 C 6,1 C 3,9 C 86 % 0 lf 1022,3 hPa 0,0 l/m 0 min 0 min 10 W/m 14,6 km/h (3 Bft) 97,83 %
31.12.2015 21:34 6,0 C 5,6 C 3,9 C 86 % 0 lf 1022,3 hPa 0,0 l/m 0 min 0 min 10 W/m 12,6 km/h (3 Bft) 100,00 %
31.12.2015 21:36 6,0 C 6,1 C 3,9 C 85 % 0 lf 1022,2 hPa 0,0 l/m 0 min 0 min 10 W/m 12,6 km/h (3 Bft) 97,87 %
31.12.2015 21:38 5,9 C 5,6 C 3,9 C 86 % 0 lf 1022,3 hPa 0,0 l/m 0 min 0 min 25 W/m 12,6 km/h (3 Bft) 100,00 %
31.12.2015 21:40 5,9 C 6,1 C 3,9 C 86 % 0 lf 1022,2 hPa 0,0 l/m 0 min 0 min 0 W/m 12,6 km/h (3 Bft) 100,00 %
31.12.2015 21:42 5,9 C 6,1 C 3,9 C 86 % 0 lf 1022,3 hPa 0,0 l/m 0 min 0 min 0 W/m 10,5 km/h (2 Bft) 97,87 %
31.12.2015 21:44 5,9 C 6,1 C 3,9 C 86 % 0 lf 1022,4 hPa 0,0 l/m 0 min 0 min 0 W/m 10,5 km/h (2 Bft) 100,00 %
31.12.2015 21:46 5,9 C 6,1 C 3,9 C 86 % 0 lf 1022,3 hPa 0,0 l/m 0 min 0 min 0 W/m 8,4 km/h (2 Bft) 100,00 %
31.12.2015 21:48 5,9 C 6,1 C 3,9 C 86 % 0 lf 1022,4 hPa 0,0 l/m 0 min 0 min 0 W/m 8,4 km/h (2 Bft) 100,00 %
31.12.2015 21:50 5,9 C 5,6 C 3,9 C 86 % 0 lf 1022,4 hPa 0,0 l/m 0 min 0 min 0 W/m 6,3 km/h (2 Bft) 97,87 %
31.12.2015 21:52 5,9 C 5,6 C 3,9 C 86 % 0 lf 1022,4 hPa 0,0 l/m 0 min 0 min 0 W/m 8,4 km/h (2 Bft) 97,87 %
31.12.2015 21:54 5,9 C 5,6 C 3,3 C 86 % 0 lf 1022,4 hPa 0,0 l/m 0 min 0 min 0 W/m 8,4 km/h (2 Bft) 91,49 %
31.12.2015 21:56 5,9 C 5,6 C 3,3 C 86 % 0 lf 1022,4 hPa 0,0 l/m 0 min 0 min 0 W/m 8,4 km/h (2 Bft) 97,83 %
31.12.2015 21:58 5,8 C 5,6 C 3,3 C 86 % 0 lf 1022,4 hPa 0,0 l/m 0 min 0 min 0 W/m 6,3 km/h (2 Bft) 97,87 %
31.12.2015 22:00 5,8 C 5,6 C 3,3 C 86 % 0 lf 1022,4 hPa 0,0 l/m 0 min 0 min 0 W/m 6,3 km/h (2 Bft) 97,87 %
31.12.2015 22:02 5,8 C 5,6 C 3,3 C 86 % 0 lf 1022,3 hPa 0,0 l/m 0 min 0 min 0 W/m 6,3 km/h (2 Bft) 95,74 %
31.12.2015 22:04 5,8 C 5,6 C 3,3 C 86 % 0 lf 1022,3 hPa 0,0 l/m 0 min 0 min 0 W/m 10,5 km/h (2 Bft) 97,87 %
31.12.2015 22:06 5,7 C 5,6 C 3,3 C 86 % 0 lf 1022,4 hPa 0,0 l/m 0 min 0 min 3 W/m 8,4 km/h (2 Bft) 89,36 %
31.12.2015 22:08 5,7 C 5,0 C 3,3 C 86 % 0 lf 1022,3 hPa 0,0 l/m 0 min 0 min 6 W/m 6,3 km/h (2 Bft) 97,83 %
31.12.2015 22:10 5,7 C 5,0 C 2,8 C 86 % 0 lf 1022,4 hPa 0,0 l/m 0 min 0 min 3 W/m 6,3 km/h (2 Bft) 97,87 %
31.12.2015 22:12 5,7 C 5,0 C 3,3 C 86 % 0 lf 1022,4 hPa 0,0 l/m 0 min 0 min 0 W/m 6,3 km/h (2 Bft) 93,62 %
31.12.2015 22:14 5,6 C 5,0 C 2,8 C 86 % 0 lf 1022,4 hPa 0,0 l/m 0 min 0 min 0 W/m 8,4 km/h (2 Bft) 95,74 %
31.12.2015 22:16 5,6 C 5,0 C 2,8 C 86 % 0 lf 1022,4 hPa 0,0 l/m 0 min 0 min 0 W/m 8,4 km/h (2 Bft) 97,87 %
31.12.2015 22:18 5,6 C 5,0 C 2,8 C 86 % 0 lf 1022,4 hPa 0,0 l/m 0 min 0 min 0 W/m 8,4 km/h (2 Bft) 97,87 %
31.12.2015 22:20 5,5 C 5,0 C 2,8 C 86 % 0 lf 1022,4 hPa 0,0 l/m 0 min 0 min 0 W/m 8,4 km/h (2 Bft) 97,83 %
31.12.2015 22:22 5,5 C 5,0 C 2,8 C 86 % 0 lf 1022,4 hPa 0,0 l/m 0 min 0 min 0 W/m 6,3 km/h (2 Bft) 93,62 %
31.12.2015 22:24 5,4 C 5,0 C 2,8 C 86 % 0 lf 1022,5 hPa 0,0 l/m 0 min 0 min 0 W/m 6,3 km/h (2 Bft) 95,74 %
31.12.2015 22:26 5,4 C 5,0 C 2,8 C 86 % 0 lf 1022,5 hPa 0,0 l/m 0 min 0 min 0 W/m 6,3 km/h (2 Bft) 97,87 %
31.12.2015 22:28 5,4 C 5,0 C 2,8 C 86 % 0 lf 1022,5 hPa 0,0 l/m 0 min 0 min 0 W/m 8,4 km/h (2 Bft) 95,74 %
31.12.2015 22:30 5,3 C 5,0 C 2,8 C 86 % 0 lf 1022,4 hPa 0,0 l/m 0 min 0 min 0 W/m 6,3 km/h (2 Bft) 100,00 %
31.12.2015 22:32 5,3 C 5,0 C 2,8 C 87 % 0 lf 1022,4 hPa 0,0 l/m 0 min 0 min 0 W/m 8,4 km/h (2 Bft) 95,65 %
31.12.2015 22:34 5,3 C 5,0 C 2,8 C 87 % 0 lf 1022,4 hPa 0,0 l/m 0 min 0 min 0 W/m 8,4 km/h (2 Bft) 95,74 %
31.12.2015 22:36 5,2 C 5,0 C 3,3 C 87 % 0 lf 1022,4 hPa 0,0 l/m 0 min 0 min 0 W/m 10,5 km/h (2 Bft) 93,62 %
31.12.2015 22:38 5,2 C 4,4 C 2,8 C 87 % 0 lf 1022,5 hPa 0,0 l/m 0 min 0 min 0 W/m 8,4 km/h (2 Bft) 97,87 %
31.12.2015 22:40 5,2 C 4,4 C 2,8 C 87 % 0 lf 1022,5 hPa 0,0 l/m 0 min 0 min 0 W/m 8,4 km/h (2 Bft) 91,49 %
31.12.2015 22:42 5,1 C 4,4 C 2,8 C 87 % 0 lf 1022,5 hPa 0,0 l/m 0 min 0 min 0 W/m 8,4 km/h (2 Bft) 97,83 %
31.12.2015 22:44 5,1 C 4,4 C 2,8 C 87 % 0 lf 1022,5 hPa 0,0 l/m 0 min 0 min 0 W/m 8,4 km/h (2 Bft) 97,87 %
31.12.2015 22:46 5,0 C 4,4 C 2,8 C 87 % 0 lf 1022,4 hPa 0,0 l/m 0 min 0 min 0 W/m 6,3 km/h (2 Bft) 95,74 %
31.12.2015 22:48 5,0 C 4,4 C 2,8 C 87 % 0 lf 1022,4 hPa 0,0 l/m 0 min 0 min 0 W/m 8,4 km/h (2 Bft) 95,74 %
31.12.2015 22:50 4,9 C 4,4 C 2,8 C 87 % 0 lf 1022,4 hPa 0,0 l/m 0 min 0 min 0 W/m 8,4 km/h (2 Bft) 95,74 %
31.12.2015 22:52 4,9 C 4,4 C 2,8 C 87 % 0 lf 1022,4 hPa 0,0 l/m 0 min 0 min 0 W/m 8,4 km/h (2 Bft) 95,74 %
31.12.2015 22:54 4,8 C 4,4 C 2,8 C 87 % 0 lf 1022,4 hPa 0,0 l/m 0 min 0 min 0 W/m 8,4 km/h (2 Bft) 93,48 %
31.12.2015 22:56 4,8 C 4,4 C 2,8 C 87 % 0 lf 1022,4 hPa 0,0 l/m 0 min 0 min 0 W/m 8,4 km/h (2 Bft) 93,62 %
31.12.2015 22:58 4,7 C 4,4 C 2,8 C 87 % 0 lf 1022,5 hPa 0,0 l/m 0 min 0 min 0 W/m 10,5 km/h (2 Bft) 95,74 %
31.12.2015 23:00 4,7 C 4,4 C 2,8 C 87 % 0 lf 1022,5 hPa 0,0 l/m 0 min 0 min 0 W/m 8,4 km/h (2 Bft) 93,62 %
31.12.2015 23:02 4,7 C 4,4 C 2,8 C 87 % 0 lf 1022,5 hPa 0,0 l/m 0 min 0 min 0 W/m 8,4 km/h (2 Bft) 95,74 %
31.12.2015 23:04 4,6 C 4,4 C 2,8 C 88 % 0 lf 1022,5 hPa 0,0 l/m 0 min 0 min 0 W/m 8,4 km/h (2 Bft) 95,74 %
31.12.2015 23:06 4,6 C 3,9 C 2,8 C 88 % 0 lf 1022,5 hPa 0,0 l/m 0 min 0 min 0 W/m 6,3 km/h (2 Bft) 95,65 %
31.12.2015 23:08 4,6 C 3,9 C 2,8 C 88 % 0 lf 1022,5 hPa 0,0 l/m 0 min 0 min 0 W/m 10,5 km/h (2 Bft) 95,74 %
31.12.2015 23:10 4,5 C 3,9 C 2,8 C 88 % 0 lf 1022,5 hPa 0,0 l/m 0 min 0 min 0 W/m 8,4 km/h (2 Bft) 93,62 %
31.12.2015 23:12 4,4 C 3,9 C 2,2 C 88 % 0 lf 1022,5 hPa 0,0 l/m 0 min 0 min 0 W/m 8,4 km/h (2 Bft) 89,36 %
31.12.2015 23:14 4,4 C 3,9 C 2,2 C 88 % 0 lf 1022,5 hPa 0,0 l/m 0 min 0 min 0 W/m 8,4 km/h (2 Bft) 93,62 %
31.12.2015 23:16 4,4 C 3,9 C 2,2 C 88 % 0 lf 1022,6 hPa 0,0 l/m 0 min 0 min 0 W/m 8,4 km/h (2 Bft) 95,74 %
31.12.2015 23:18 4,3 C 3,9 C 2,2 C 88 % 0 lf 1022,6 hPa 0,0 l/m 0 min 0 min 0 W/m 6,3 km/h (2 Bft) 95,65 %
31.12.2015 23:20 4,3 C 3,9 C 2,2 C 88 % 0 lf 1022,5 hPa 0,0 l/m 0 min 0 min 0 W/m 8,4 km/h (2 Bft) 95,74 %
31.12.2015 23:22 4,3 C 3,9 C 2,2 C 88 % 0 lf 1022,5 hPa 0,0 l/m 0 min 0 min 0 W/m 8,4 km/h (2 Bft) 95,74 %
31.12.2015 23:24 4,3 C 3,9 C 2,2 C 88 % 0 lf 1022,5 hPa 0,0 l/m 0 min 0 min 0 W/m 6,3 km/h (2 Bft) 95,74 %
31.12.2015 23:26 4,2 C 3,9 C 2,2 C 88 % 0 lf 1022,5 hPa 0,0 l/m 0 min 0 min 0 W/m 6,3 km/h (2 Bft) 95,74 %
31.12.2015 23:28 4,2 C 3,9 C 2,2 C 88 % 0 lf 1022,5 hPa 0,0 l/m 0 min 0 min 0 W/m 8,4 km/h (2 Bft) 93,62 %
31.12.2015 23:30 4,2 C 3,9 C 2,2 C 88 % 0 lf 1022,5 hPa 0,0 l/m 0 min 0 min 0 W/m 10,5 km/h (2 Bft) 89,13 %
31.12.2015 23:32 4,2 C 3,9 C 2,2 C 89 % 0 lf 1022,5 hPa 0,0 l/m 0 min 0 min 0 W/m 10,5 km/h (2 Bft) 95,74 %
31.12.2015 23:34 4,2 C 3,9 C 2,2 C 89 % 0 lf 1022,5 hPa 0,0 l/m 0 min 0 min 0 W/m 10,5 km/h (2 Bft) 91,49 %
31.12.2015 23:36 4,1 C 3,9 C 2,2 C 89 % 0 lf 1022,5 hPa 0,0 l/m 0 min 0 min 0 W/m 8,4 km/h (2 Bft) 95,74 %
31.12.2015 23:38 4,1 C 3,9 C 2,2 C 89 % 0 lf 1022,5 hPa 0,0 l/m 0 min 0 min 0 W/m 8,4 km/h (2 Bft) 91,49 %
31.12.2015 23:40 4,1 C 3,9 C 2,2 C 89 % 0 lf 1022,5 hPa 0,0 l/m 0 min 0 min 0 W/m 10,5 km/h (2 Bft) 93,48 %
31.12.2015 23:42 4,1 C 3,9 C 2,2 C 89 % 0 lf 1022,5 hPa 0,0 l/m 0 min 0 min 0 W/m 12,6 km/h (3 Bft) 95,74 %
31.12.2015 23:44 4,0 C 3,9 C 2,2 C 89 % 0 lf 1022,5 hPa 0,0 l/m 0 min 0 min 0 W/m 8,4 km/h (2 Bft) 91,49 %
31.12.2015 23:46 4,0 C 3,9 C 2,2 C 89 % 0 lf 1022,5 hPa 0,0 l/m 0 min 0 min 0 W/m 8,4 km/h (2 Bft) 93,62 %
31.12.2015 23:48 3,9 C 3,9 C 2,2 C 89 % 0 lf 1022,5 hPa 0,0 l/m 0 min 0 min 0 W/m 8,4 km/h (2 Bft) 95,74 %
31.12.2015 23:50 3,9 C 3,9 C 2,2 C 89 % 0 lf 1022,5 hPa 0,0 l/m 0 min 0 min 0 W/m 8,4 km/h (2 Bft) 95,74 %
31.12.2015 23:52 3,9 C 3,9 C 2,2 C 89 % 0 lf 1022,5 hPa 0,0 l/m 0 min 0 min 0 W/m 12,6 km/h (3 Bft) 95,65 %
31.12.2015 23:54 3,9 C 3,9 C 2,2 C 89 % 0 lf 1022,5 hPa 0,0 l/m 0 min 0 min 0 W/m 12,6 km/h (3 Bft) 93,62 %
31.12.2015 23:56 3,9 C 3,9 C 2,2 C 89 % 0 lf 1022,5 hPa 0,0 l/m 0 min 0 min 0 W/m 12,6 km/h (3 Bft) 97,87 %
31.12.2015 23:58 3,9 C 3,9 C 2,2 C 90 % 0 lf 1022,4 hPa 0,0 l/m 0 min 0 min 0 W/m 8,4 km/h (2 Bft) 97,87 %
_ Min-Zeit 23:48 23:06 23:12 14:04 00:00 03:20 - - - - 06:58 04:09
Minimum _ 3,9 C 3,9 C 2,2 C 75 % 0 lf 1013,7 hPa - - - - 6,3 km/h (2 Bft) 81,82 %
_ Max-Zeit 14:24 13:48 13:54 09:20 07:10 23:16 06:16 11:16 03:16 12:34 00:16 01:00
Maximum _ 10,7 C 16,1 C 8,9 C 97 % 15 lf 1022,6 hPa 0,2 l/m 2 min 2 min 279 W/m 56,5 km/h
S-SO (7 Bft)
100,00 %
Durchschnitt _ 7,1 C 7,6 C 5,3 C 86 % 1 lf 1018,7 hPa #2,6 l/m #4:51 h #2:10 h 75 W/m 20,1 km/h (4 Bft) 95,96 %
© 2015 W. Hausmann